Time,TemperatureF,DewpointF,PressureIn,WindDirection,WindDirectionDegrees,WindSpeedMPH,WindSpeedGustMPH,Humidity,HourlyPrecipIn,Conditions,Clouds,dailyrainin,SoftwareType,DateUTC
2013-06-16 00:01:00,73.7,67.5,29.83,South,171,0.0,0.0,81,0.00,,---,0.00,VWS V14.01,2013-06-16 05:01:00,
2013-06-16 00:02:00,73.7,67.5,29.83,South,171,0.0,0.0,81,0.00,,---,0.00,VWS V14.01,2013-06-16 05:02:00,
2013-06-16 00:06:00,73.7,67.5,29.83,South,171,0.0,0.0,81,0.00,,---,0.00,VWS V14.01,2013-06-16 05:06:00,
2013-06-16 00:07:00,73.7,67.5,29.83,South,171,0.0,0.0,81,0.00,,---,0.00,VWS V14.01,2013-06-16 05:07:00,
2013-06-16 00:11:00,73.7,67.5,29.83,South,171,0.0,0.0,81,0.00,,---,0.00,VWS V14.01,2013-06-16 05:11:00,
2013-06-16 00:12:00,73.7,67.5,29.83,South,171,0.0,0.0,81,0.00,,---,0.00,VWS V14.01,2013-06-16 05:12:00,
2013-06-16 00:16:00,73.7,67.5,29.84,South,171,0.0,0.0,81,0.00,,---,0.00,VWS V14.01,2013-06-16 05:16:00,
2013-06-16 00:17:00,73.7,67.5,29.84,South,171,0.0,0.0,81,0.00,,---,0.00,VWS V14.01,2013-06-16 05:17:00,
2013-06-16 00:21:00,73.7,67.5,29.84,South,170,0.0,0.0,81,0.00,,---,0.00,VWS V14.01,2013-06-16 05:21:00,
2013-06-16 00:22:00,73.7,67.5,29.84,South,170,0.0,0.0,81,0.00,,---,0.00,VWS V14.01,2013-06-16 05:22:00,
2013-06-16 00:26:00,73.7,67.5,29.84,South,170,0.0,0.0,81,0.00,,---,0.00,VWS V14.01,2013-06-16 05:26:00,
2013-06-16 00:27:00,73.7,67.5,29.84,South,170,0.0,0.0,81,0.00,,---,0.00,VWS V14.01,2013-06-16 05:27:00,
2013-06-16 00:31:00,73.5,67.3,29.85,South,170,0.0,0.0,81,0.00,,---,0.00,VWS V14.01,2013-06-16 05:31:00,
2013-06-16 00:32:00,73.5,67.3,29.85,South,170,0.0,0.0,81,0.00,,---,0.00,VWS V14.01,2013-06-16 05:32:00,
2013-06-16 00:36:00,73.0,67.2,29.85,South,170,0.0,0.0,82,0.00,,---,0.00,VWS V14.01,2013-06-16 05:36:00,
2013-06-16 00:37:00,73.0,67.2,29.85,South,170,0.0,0.0,82,0.00,,---,0.00,VWS V14.01,2013-06-16 05:37:00,
2013-06-16 00:41:00,72.7,67.2,29.85,South,170,0.0,0.0,83,0.00,,---,0.00,VWS V14.01,2013-06-16 05:41:00,
2013-06-16 00:42:00,72.7,67.2,29.85,South,170,0.0,0.0,83,0.00,,---,0.00,VWS V14.01,2013-06-16 05:42:00,
2013-06-16 00:46:00,72.3,67.2,29.86,SSE,167,0.0,0.0,84,0.00,,---,0.00,VWS V14.01,2013-06-16 05:46:00,
2013-06-16 00:47:00,72.3,67.2,29.86,SSE,167,0.0,0.0,84,0.00,,---,0.00,VWS V14.01,2013-06-16 05:47:00,
2013-06-16 00:51:00,72.0,67.2,29.86,SSE,167,0.0,0.0,85,0.00,,---,0.00,VWS V14.01,2013-06-16 05:51:00,
2013-06-16 00:52:00,72.0,67.6,29.86,SSE,167,0.0,0.0,86,0.00,,---,0.00,VWS V14.01,2013-06-16 05:52:00,
2013-06-16 00:56:00,72.0,67.9,29.86,SSE,167,0.0,0.0,87,0.00,,---,0.00,VWS V14.01,2013-06-16 05:56:00,
2013-06-16 00:57:00,72.0,67.9,29.86,SSE,167,0.0,0.0,87,0.00,,---,0.00,VWS V14.01,2013-06-16 05:57:00,
2013-06-16 00:58:00,72.0,67.9,29.86,SSE,167,0.0,0.0,87,0.00,,---,0.00,VWS V14.01,2013-06-16 05:58:00,
2013-06-16 01:01:00,71.8,68.1,29.87,SSE,167,0.0,0.0,88,0.00,,---,0.00,VWS V14.01,2013-06-16 06:01:00,
2013-06-16 01:02:00,71.8,68.1,29.87,SSE,167,0.0,0.0,88,0.00,,---,0.00,VWS V14.01,2013-06-16 06:02:00,
2013-06-16 01:03:00,71.8,68.1,29.87,SSE,167,0.0,0.0,88,0.00,,---,0.00,VWS V14.01,2013-06-16 06:03:00,
2013-06-16 01:06:00,71.6,68.2,29.87,SSE,167,0.0,0.0,89,0.00,,---,0.00,VWS V14.01,2013-06-16 06:06:00,
2013-06-16 01:07:00,71.6,68.2,29.87,SSE,167,0.0,0.0,89,0.00,,---,0.00,VWS V14.01,2013-06-16 06:07:00,
2013-06-16 01:08:00,71.6,68.2,29.87,SSE,167,0.0,0.0,89,0.00,,---,0.00,VWS V14.01,2013-06-16 06:08:00,
2013-06-16 01:11:00,71.5,68.4,29.87,SSE,160,0.0,0.0,90,0.00,,---,0.00,VWS V14.01,2013-06-16 06:11:00,
2013-06-16 01:12:00,71.5,68.4,29.87,SSE,160,0.0,0.0,90,0.00,,---,0.00,VWS V14.01,2013-06-16 06:12:00,
2013-06-16 01:13:00,71.5,68.4,29.87,SSE,160,0.0,0.0,90,0.00,,---,0.00,VWS V14.01,2013-06-16 06:13:00,
2013-06-16 01:16:00,71.3,68.2,29.87,SSE,160,0.0,0.0,90,0.00,,---,0.00,VWS V14.01,2013-06-16 06:16:00,
2013-06-16 01:17:00,71.3,68.2,29.87,SSE,160,0.0,0.0,90,0.00,,---,0.00,VWS V14.01,2013-06-16 06:17:00,
2013-06-16 01:18:00,71.3,68.2,29.87,SSE,160,0.0,0.0,90,0.00,,---,0.00,VWS V14.01,2013-06-16 06:18:00,
2013-06-16 01:21:00,71.3,68.5,29.87,SSE,160,0.0,0.0,91,0.00,,---,0.00,VWS V14.01,2013-06-16 06:21:00,
2013-06-16 01:22:00,71.3,68.5,29.87,SSE,160,0.0,0.0,91,0.00,,---,0.00,VWS V14.01,2013-06-16 06:22:00,
2013-06-16 01:23:00,71.3,68.5,29.87,SSE,160,0.0,0.0,91,0.00,,---,0.00,VWS V14.01,2013-06-16 06:23:00,
2013-06-16 01:27:00,71.3,68.9,29.87,SSE,160,0.0,0.0,92,0.00,,---,0.00,VWS V14.01,2013-06-16 06:27:00,
2013-06-16 01:28:00,71.3,68.9,29.87,SSE,160,0.0,0.0,92,0.00,,---,0.00,VWS V14.01,2013-06-16 06:28:00,
2013-06-16 01:32:00,71.3,68.9,29.87,SSE,160,0.0,0.0,92,0.00,,---,0.00,VWS V14.01,2013-06-16 06:32:00,
2013-06-16 01:33:00,71.3,68.9,29.87,SSE,160,0.0,0.0,92,0.00,,---,0.00,VWS V14.01,2013-06-16 06:33:00,
2013-06-16 01:37:00,71.1,68.7,29.87,SSE,160,0.0,0.0,92,0.00,,---,0.00,VWS V14.01,2013-06-16 06:37:00,
2013-06-16 01:38:00,71.1,69.0,29.87,SSE,160,0.0,0.0,93,0.00,,---,0.00,VWS V14.01,2013-06-16 06:38:00,
2013-06-16 01:42:00,70.9,68.8,29.87,SSE,160,0.0,0.0,93,0.00,,---,0.00,VWS V14.01,2013-06-16 06:42:00,
2013-06-16 01:43:00,70.9,68.8,29.87,SSE,160,0.0,0.0,93,0.00,,---,0.00,VWS V14.01,2013-06-16 06:43:00,
2013-06-16 01:47:00,70.9,68.8,29.87,SSE,160,0.0,0.0,93,0.00,,---,0.00,VWS V14.01,2013-06-16 06:47:00,
2013-06-16 01:48:00,70.9,68.8,29.87,SSE,160,0.0,0.0,93,0.00,,---,0.00,VWS V14.01,2013-06-16 06:48:00,
2013-06-16 01:52:00,70.9,68.8,29.87,SSE,160,0.0,0.0,93,0.00,,---,0.00,VWS V14.01,2013-06-16 06:52:00,
2013-06-16 01:53:00,70.9,68.8,29.87,SSE,160,0.0,0.0,93,0.00,,---,0.00,VWS V14.01,2013-06-16 06:53:00,
2013-06-16 01:54:00,70.9,68.8,29.87,SSE,160,0.0,0.0,93,0.00,,---,0.00,VWS V14.01,2013-06-16 06:54:00,
2013-06-16 01:57:00,70.9,69.1,29.87,SSE,160,0.0,0.0,94,0.00,,---,0.00,VWS V14.01,2013-06-16 06:57:00,
2013-06-16 01:58:00,70.9,69.1,29.87,SSE,160,0.0,0.0,94,0.00,,---,0.00,VWS V14.01,2013-06-16 06:58:00,
2013-06-16 01:59:00,70.9,69.1,29.87,SSE,160,0.0,0.0,94,0.00,,---,0.00,VWS V14.01,2013-06-16 06:59:00,
2013-06-16 02:02:00,70.9,69.1,29.88,SSE,160,0.0,0.0,94,0.00,,---,0.00,VWS V14.01,2013-06-16 07:02:00,
2013-06-16 02:03:00,70.9,69.1,29.88,SSE,160,0.0,0.0,94,0.00,,---,0.00,VWS V14.01,2013-06-16 07:03:00,
2013-06-16 02:04:00,70.9,69.1,29.88,SSE,160,0.0,0.0,94,0.00,,---,0.00,VWS V14.01,2013-06-16 07:04:00,
2013-06-16 02:07:00,70.9,69.1,29.88,SSE,160,0.0,0.0,94,0.00,,---,0.00,VWS V14.01,2013-06-16 07:07:00,
2013-06-16 02:08:00,70.9,69.1,29.88,SSE,160,0.0,0.0,94,0.00,,---,0.00,VWS V14.01,2013-06-16 07:08:00,
2013-06-16 02:09:00,70.9,69.1,29.88,SSE,160,0.0,0.0,94,0.00,,---,0.00,VWS V14.01,2013-06-16 07:09:00,
2013-06-16 02:12:00,70.9,69.1,29.88,SSE,160,0.0,0.0,94,0.00,,---,0.00,VWS V14.01,2013-06-16 07:12:00,
2013-06-16 02:13:00,70.9,69.1,29.88,SSE,160,0.0,0.0,94,0.00,,---,0.00,VWS V14.01,2013-06-16 07:13:00,
2013-06-16 02:14:00,71.1,69.3,29.88,SSE,160,0.0,0.0,94,0.00,,---,0.00,VWS V14.01,2013-06-16 07:14:00,
2013-06-16 02:17:00,71.1,69.3,29.88,SSE,160,0.0,5.0,94,0.00,,---,0.00,VWS V14.01,2013-06-16 07:17:00,
2013-06-16 02:18:00,71.1,69.3,29.88,SSE,160,0.0,5.0,94,0.00,,---,0.00,VWS V14.01,2013-06-16 07:18:00,
2013-06-16 02:19:00,71.1,69.3,29.88,SSE,160,0.0,5.0,94,0.00,,---,0.00,VWS V14.01,2013-06-16 07:19:00,
2013-06-16 02:22:00,71.1,69.3,29.88,SSE,160,0.0,0.0,94,0.00,,---,0.00,VWS V14.01,2013-06-16 07:22:00,
2013-06-16 02:23:00,71.1,69.3,29.88,SSE,160,0.0,0.0,94,0.00,,---,0.00,VWS V14.01,2013-06-16 07:23:00,
2013-06-16 02:24:00,71.1,69.3,29.88,SSE,160,5.0,5.0,94,0.00,,---,0.00,VWS V14.01,2013-06-16 07:24:00,
2013-06-16 02:27:00,71.1,69.3,29.88,SSE,160,0.0,5.0,94,0.00,,---,0.00,VWS V14.01,2013-06-16 07:27:00,
2013-06-16 02:28:00,71.1,69.3,29.88,SSE,160,0.0,5.0,94,0.00,,---,0.00,VWS V14.01,2013-06-16 07:28:00,
2013-06-16 02:29:00,71.1,69.6,29.88,SSE,160,0.0,5.0,95,0.00,,---,0.00,VWS V14.01,2013-06-16 07:29:00,
2013-06-16 02:32:00,71.1,69.6,29.88,SSE,160,0.0,0.0,95,0.00,,---,0.00,VWS V14.01,2013-06-16 07:32:00,
2013-06-16 02:33:00,71.1,69.3,29.88,SSE,160,0.0,0.0,94,0.00,,---,0.00,VWS V14.01,2013-06-16 07:33:00,
2013-06-16 02:34:00,71.1,69.3,29.88,SSE,160,0.0,0.0,94,0.00,,---,0.00,VWS V14.01,2013-06-16 07:34:00,
2013-06-16 02:37:00,71.1,69.3,29.88,SSE,160,0.0,0.0,94,0.00,,---,0.00,VWS V14.01,2013-06-16 07:37:00,
2013-06-16 02:38:00,71.1,69.3,29.88,SSE,160,0.0,0.0,94,0.00,,---,0.00,VWS V14.01,2013-06-16 07:38:00,
2013-06-16 02:39:00,71.1,69.3,29.88,SSE,160,0.0,0.0,94,0.00,,---,0.00,VWS V14.01,2013-06-16 07:39:00,
2013-06-16 02:42:00,71.1,69.6,29.88,SSE,160,0.0,0.0,95,0.00,,---,0.00,VWS V14.01,2013-06-16 07:42:00,
2013-06-16 02:43:00,71.1,69.6,29.88,SSE,160,0.0,0.0,95,0.00,,---,0.00,VWS V14.01,2013-06-16 07:43:00,
2013-06-16 02:44:00,71.1,69.6,29.88,SSE,160,0.0,0.0,95,0.00,,---,0.00,VWS V14.01,2013-06-16 07:44:00,
2013-06-16 02:48:00,71.1,69.6,29.88,SSE,161,0.0,7.0,95,0.00,,---,0.00,VWS V14.01,2013-06-16 07:48:00,
2013-06-16 02:49:00,71.1,69.6,29.88,SSE,161,3.0,7.0,95,0.00,,---,0.00,VWS V14.01,2013-06-16 07:49:00,
2013-06-16 02:50:00,71.1,69.6,29.88,SSE,161,5.0,7.0,95,0.00,,---,0.00,VWS V14.01,2013-06-16 07:50:00,
2013-06-16 02:53:00,71.1,69.6,29.88,SSE,162,1.0,6.0,95,0.00,,---,0.00,VWS V14.01,2013-06-16 07:53:00,
2013-06-16 02:54:00,71.1,69.6,29.88,SSE,162,3.0,6.0,95,0.00,,---,0.00,VWS V14.01,2013-06-16 07:54:00,
2013-06-16 02:55:00,71.1,69.6,29.88,SSE,162,3.0,6.0,95,0.00,,---,0.00,VWS V14.01,2013-06-16 07:55:00,
2013-06-16 02:58:00,71.1,69.6,29.88,SSE,157,3.0,10.0,95,0.00,,---,0.00,VWS V14.01,2013-06-16 07:58:00,
2013-06-16 02:59:00,71.1,69.6,29.88,South,171,2.0,10.0,95,0.00,,---,0.00,VWS V14.01,2013-06-16 07:59:00,
2013-06-16 03:00:00,71.1,69.6,29.88,South,171,0.0,10.0,95,0.00,,---,0.00,VWS V14.01,2013-06-16 08:00:00,
2013-06-16 03:03:00,71.3,69.8,29.88,South,171,0.0,0.0,95,0.00,,---,0.00,VWS V14.01,2013-06-16 08:03:00,
2013-06-16 03:04:00,71.3,69.8,29.88,South,172,0.0,0.0,95,0.00,,---,0.00,VWS V14.01,2013-06-16 08:04:00,
2013-06-16 03:05:00,71.3,69.8,29.88,South,173,0.0,1.0,95,0.00,,---,0.00,VWS V14.01,2013-06-16 08:05:00,
2013-06-16 03:08:00,71.1,69.6,29.88,SSE,167,0.0,3.0,95,0.00,,---,0.00,VWS V14.01,2013-06-16 08:08:00,
2013-06-16 03:09:00,71.1,69.6,29.88,South,169,0.0,3.0,95,0.00,,---,0.00,VWS V14.01,2013-06-16 08:09:00,
2013-06-16 03:10:00,71.1,69.6,29.88,South,169,0.0,3.0,95,0.00,,---,0.00,VWS V14.01,2013-06-16 08:10:00,
2013-06-16 03:13:00,71.1,69.6,29.88,South,169,0.0,0.0,95,0.00,,---,0.00,VWS V14.01,2013-06-16 08:13:00,
2013-06-16 03:14:00,71.1,69.6,29.88,South,169,0.0,0.0,95,0.00,,---,0.00,VWS V14.01,2013-06-16 08:14:00,
2013-06-16 03:15:00,71.1,69.6,29.87,South,169,0.0,0.0,95,0.00,,---,0.00,VWS V14.01,2013-06-16 08:15:00,
2013-06-16 03:18:00,71.1,69.6,29.87,South,176,0.0,0.0,95,0.00,,---,0.00,VWS V14.01,2013-06-16 08:18:00,
2013-06-16 03:19:00,71.1,69.6,29.87,South,176,0.0,0.0,95,0.00,,---,0.00,VWS V14.01,2013-06-16 08:19:00,
2013-06-16 03:20:00,71.1,69.6,29.87,South,176,0.0,0.0,95,0.00,,---,0.00,VWS V14.01,2013-06-16 08:20:00,
2013-06-16 03:23:00,71.1,69.6,29.87,South,177,0.0,0.0,95,0.00,,---,0.00,VWS V14.01,2013-06-16 08:23:00,
2013-06-16 03:24:00,71.1,69.6,29.87,South,177,0.0,0.0,95,0.00,,---,0.00,VWS V14.01,2013-06-16 08:24:00,
2013-06-16 03:25:00,71.1,69.6,29.87,South,177,0.0,0.0,95,0.00,,---,0.00,VWS V14.01,2013-06-16 08:25:00,
2013-06-16 03:28:00,71.1,69.6,29.87,South,177,0.0,0.0,95,0.00,,---,0.00,VWS V14.01,2013-06-16 08:28:00,
2013-06-16 03:29:00,71.1,69.6,29.87,South,177,0.0,0.0,95,0.00,,---,0.00,VWS V14.01,2013-06-16 08:29:00,
2013-06-16 03:30:00,71.1,69.6,29.86,South,177,0.0,0.0,95,0.00,,---,0.00,VWS V14.01,2013-06-16 08:30:00,
2013-06-16 03:33:00,71.1,69.6,29.86,South,177,0.0,0.0,95,0.00,,---,0.00,VWS V14.01,2013-06-16 08:33:00,
2013-06-16 03:34:00,71.1,69.6,29.86,South,177,0.0,0.0,95,0.00,,---,0.00,VWS V14.01,2013-06-16 08:34:00,
2013-06-16 03:35:00,71.1,69.6,29.86,South,177,0.0,0.0,95,0.00,,---,0.00,VWS V14.01,2013-06-16 08:35:00,
2013-06-16 03:38:00,71.3,69.8,29.86,South,177,0.0,0.0,95,0.00,,---,0.00,VWS V14.01,2013-06-16 08:38:00,
2013-06-16 03:39:00,71.3,69.8,29.86,South,177,0.0,0.0,95,0.00,,---,0.00,VWS V14.01,2013-06-16 08:39:00,
2013-06-16 03:40:00,71.3,69.8,29.86,South,177,0.0,0.0,95,0.00,,---,0.00,VWS V14.01,2013-06-16 08:40:00,
2013-06-16 03:43:00,71.3,69.8,29.86,South,177,0.0,0.0,95,0.00,,---,0.00,VWS V14.01,2013-06-16 08:43:00,
2013-06-16 03:44:00,71.3,69.8,29.86,South,177,0.0,0.0,95,0.00,,---,0.00,VWS V14.01,2013-06-16 08:44:00,
2013-06-16 03:45:00,71.3,69.8,29.86,South,177,0.0,0.0,95,0.00,,---,0.00,VWS V14.01,2013-06-16 08:45:00,
2013-06-16 03:48:00,71.3,69.8,29.86,South,177,0.0,0.0,95,0.00,,---,0.00,VWS V14.01,2013-06-16 08:48:00,
2013-06-16 03:49:00,71.3,69.8,29.86,South,177,0.0,0.0,95,0.00,,---,0.00,VWS V14.01,2013-06-16 08:49:00,
2013-06-16 03:50:00,71.3,69.8,29.86,South,177,0.0,0.0,95,0.00,,---,0.00,VWS V14.01,2013-06-16 08:50:00,
2013-06-16 03:53:00,71.3,69.8,29.86,South,177,0.0,0.0,95,0.00,,---,0.00,VWS V14.01,2013-06-16 08:53:00,
2013-06-16 03:54:00,71.3,69.8,29.86,South,177,0.0,0.0,95,0.00,,---,0.00,VWS V14.01,2013-06-16 08:54:00,
2013-06-16 03:55:00,71.3,69.8,29.86,South,177,0.0,0.0,95,0.00,,---,0.00,VWS V14.01,2013-06-16 08:55:00,
2013-06-16 03:58:00,71.1,69.6,29.86,South,177,0.0,0.0,95,0.00,,---,0.00,VWS V14.01,2013-06-16 08:58:00,
2013-06-16 03:59:00,71.1,69.6,29.86,South,177,0.0,0.0,95,0.00,,---,0.00,VWS V14.01,2013-06-16 08:59:00,
2013-06-16 04:00:00,71.1,69.6,29.86,South,177,0.0,0.0,95,0.00,,---,0.00,VWS V14.01,2013-06-16 09:00:00,
2013-06-16 04:03:00,71.1,69.6,29.86,South,177,0.0,0.0,95,0.00,,---,0.00,VWS V14.01,2013-06-16 09:03:00,
2013-06-16 04:04:00,71.1,69.6,29.86,South,177,0.0,0.0,95,0.00,,---,0.00,VWS V14.01,2013-06-16 09:04:00,
2013-06-16 04:05:00,70.9,69.4,29.86,South,177,0.0,0.0,95,0.00,,---,0.00,VWS V14.01,2013-06-16 09:05:00,
2013-06-16 04:08:00,70.9,69.4,29.86,South,177,0.0,0.0,95,0.00,,---,0.00,VWS V14.01,2013-06-16 09:08:00,
2013-06-16 04:09:00,70.9,69.4,29.86,South,177,0.0,0.0,95,0.00,,---,0.00,VWS V14.01,2013-06-16 09:09:00,
2013-06-16 04:10:00,70.9,69.4,29.86,South,177,0.0,0.0,95,0.00,,---,0.00,VWS V14.01,2013-06-16 09:10:00,
2013-06-16 04:13:00,71.1,69.9,29.86,SSW,196,0.0,1.0,96,0.00,,---,0.00,VWS V14.01,2013-06-16 09:13:00,
2013-06-16 04:15:00,71.1,69.9,29.86,SSW,196,0.0,1.0,96,0.00,,---,0.00,VWS V14.01,2013-06-16 09:15:00,
2013-06-16 04:18:00,71.3,70.1,29.86,SSW,197,0.0,3.0,96,0.00,,---,0.00,VWS V14.01,2013-06-16 09:18:00,
2013-06-16 04:20:00,71.3,70.1,29.86,SSW,197,0.0,3.0,96,0.00,,---,0.00,VWS V14.01,2013-06-16 09:20:00,
2013-06-16 04:23:00,71.5,70.3,29.86,SW,215,0.0,4.0,96,0.00,,---,0.00,VWS V14.01,2013-06-16 09:23:00,
2013-06-16 04:25:00,71.5,70.3,29.86,WSW,238,0.0,5.0,96,0.00,,---,0.00,VWS V14.01,2013-06-16 09:25:00,
2013-06-16 04:29:00,71.6,70.4,29.86,SW,236,0.0,5.0,96,0.00,,---,0.00,VWS V14.01,2013-06-16 09:29:00,
2013-06-16 04:30:00,71.6,70.4,29.86,SW,236,0.0,5.0,96,0.00,,---,0.00,VWS V14.01,2013-06-16 09:30:00,
2013-06-16 04:34:00,71.6,70.4,29.86,WSW,253,0.0,2.0,96,0.00,,---,0.00,VWS V14.01,2013-06-16 09:34:00,
2013-06-16 04:35:00,71.5,70.0,29.86,WSW,252,2.0,4.0,95,0.00,,---,0.00,VWS V14.01,2013-06-16 09:35:00,
2013-06-16 04:36:00,71.5,70.0,29.86,WSW,237,2.0,4.0,95,0.00,,---,0.00,VWS V14.01,2013-06-16 09:36:00,
2013-06-16 04:39:00,71.1,69.0,29.86,WSW,237,0.0,4.0,93,0.00,,---,0.00,VWS V14.01,2013-06-16 09:39:00,
2013-06-16 04:40:00,70.9,68.8,29.86,WSW,237,0.0,4.0,93,0.00,,---,0.00,VWS V14.01,2013-06-16 09:40:00,
2013-06-16 04:41:00,70.9,68.5,29.86,SW,227,3.0,4.0,92,0.00,,---,0.00,VWS V14.01,2013-06-16 09:41:00,
2013-06-16 04:44:00,70.9,67.8,29.86,SW,227,0.0,4.0,90,0.00,,---,0.00,VWS V14.01,2013-06-16 09:44:00,
2013-06-16 04:45:00,70.9,67.8,29.86,SW,227,0.0,4.0,90,0.00,,---,0.00,VWS V14.01,2013-06-16 09:45:00,
2013-06-16 04:46:00,70.9,67.5,29.86,SW,227,0.0,4.0,89,0.00,,---,0.00,VWS V14.01,2013-06-16 09:46:00,
2013-06-16 04:49:00,70.9,67.2,29.86,SW,227,0.0,4.0,88,0.00,,---,0.00,VWS V14.01,2013-06-16 09:49:00,
2013-06-16 04:50:00,70.9,66.8,29.86,SW,227,0.0,4.0,87,0.00,,---,0.00,VWS V14.01,2013-06-16 09:50:00,
2013-06-16 04:51:00,70.9,66.8,29.86,SW,227,0.0,0.0,87,0.00,,---,0.00,VWS V14.01,2013-06-16 09:51:00,
2013-06-16 04:54:00,70.9,66.8,29.86,SW,227,0.0,0.0,87,0.00,,---,0.00,VWS V14.01,2013-06-16 09:54:00,
2013-06-16 04:55:00,70.9,66.5,29.86,SW,227,0.0,0.0,86,0.00,,---,0.00,VWS V14.01,2013-06-16 09:55:00,
2013-06-16 04:56:00,70.9,66.5,29.86,SW,227,0.0,0.0,86,0.00,,---,0.00,VWS V14.01,2013-06-16 09:56:00,
2013-06-16 04:59:00,70.8,66.4,29.86,SW,227,0.0,0.0,86,0.00,,---,0.00,VWS V14.01,2013-06-16 09:59:00,
2013-06-16 05:00:00,70.8,66.4,29.85,SW,227,0.0,0.0,86,0.00,,---,0.00,VWS V14.01,2013-06-16 10:00:00,
2013-06-16 05:01:00,70.8,66.4,29.85,SW,227,0.0,0.0,86,0.00,,---,0.00,VWS V14.01,2013-06-16 10:01:00,
2013-06-16 05:04:00,70.8,66.1,29.85,SW,227,0.0,0.0,85,0.00,,---,0.00,VWS V14.01,2013-06-16 10:04:00,
2013-06-16 05:05:00,70.8,66.1,29.85,SW,227,0.0,0.0,85,0.00,,---,0.00,VWS V14.01,2013-06-16 10:05:00,
2013-06-16 05:06:00,70.6,65.9,29.85,SW,227,0.0,0.0,85,0.00,,---,0.00,VWS V14.01,2013-06-16 10:06:00,
2013-06-16 05:09:00,70.6,65.9,29.85,SW,227,0.0,0.0,85,0.00,,---,0.00,VWS V14.01,2013-06-16 10:09:00,
2013-06-16 05:10:00,70.6,65.9,29.85,SW,227,0.0,0.0,85,0.00,,---,0.00,VWS V14.01,2013-06-16 10:10:00,
2013-06-16 05:11:00,70.6,65.9,29.85,SW,227,0.0,0.0,85,0.00,,---,0.00,VWS V14.01,2013-06-16 10:11:00,
2013-06-16 05:14:00,70.6,65.9,29.85,SW,227,0.0,0.0,85,0.00,,---,0.00,VWS V14.01,2013-06-16 10:14:00,
2013-06-16 05:15:00,70.4,65.7,29.85,SW,227,0.0,0.0,85,0.00,,---,0.00,VWS V14.01,2013-06-16 10:15:00,
2013-06-16 05:16:00,70.4,65.7,29.85,SW,227,0.0,0.0,85,0.00,,---,0.00,VWS V14.01,2013-06-16 10:16:00,
2013-06-16 05:19:00,70.4,65.7,29.85,SW,227,0.0,0.0,85,0.00,,---,0.00,VWS V14.01,2013-06-16 10:19:00,
2013-06-16 05:20:00,70.4,65.7,29.85,SW,227,0.0,0.0,85,0.00,,---,0.00,VWS V14.01,2013-06-16 10:20:00,
2013-06-16 05:21:00,70.4,65.7,29.85,SW,227,0.0,0.0,85,0.00,,---,0.00,VWS V14.01,2013-06-16 10:21:00,
2013-06-16 05:24:00,70.3,65.6,29.85,SW,227,0.0,0.0,85,0.00,,---,0.00,VWS V14.01,2013-06-16 10:24:00,
2013-06-16 05:25:00,70.3,65.6,29.85,SW,227,0.0,0.0,85,0.00,,---,0.00,VWS V14.01,2013-06-16 10:25:00,
2013-06-16 05:26:00,70.3,65.6,29.85,SW,227,0.0,0.0,85,0.00,,---,0.00,VWS V14.01,2013-06-16 10:26:00,
2013-06-16 05:27:00,70.1,65.4,29.85,SW,227,0.0,0.0,85,0.00,,---,0.00,VWS V14.01,2013-06-16 10:27:00,
2013-06-16 05:29:00,70.1,65.4,29.85,SW,227,0.0,0.0,85,0.00,,---,0.00,VWS V14.01,2013-06-16 10:29:00,
2013-06-16 05:30:00,69.9,65.2,29.86,SW,227,0.0,0.0,85,0.00,,---,0.00,VWS V14.01,2013-06-16 10:30:00,
2013-06-16 05:31:00,69.9,65.2,29.86,SW,227,0.0,0.0,85,0.00,,---,0.00,VWS V14.01,2013-06-16 10:31:00,
2013-06-16 05:32:00,69.9,65.2,29.86,SW,227,0.0,0.0,85,0.00,,---,0.00,VWS V14.01,2013-06-16 10:32:00,
2013-06-16 05:34:00,69.9,65.2,29.86,SW,227,0.0,0.0,85,0.00,,---,0.00,VWS V14.01,2013-06-16 10:34:00,
2013-06-16 05:36:00,69.8,65.1,29.86,SW,227,0.0,0.0,85,0.00,,---,0.00,VWS V14.01,2013-06-16 10:36:00,
2013-06-16 05:37:00,69.8,65.1,29.86,SW,227,0.0,0.0,85,0.00,,---,0.00,VWS V14.01,2013-06-16 10:37:00,
2013-06-16 05:39:00,69.9,65.2,29.86,SW,227,0.0,0.0,85,0.00,,---,0.00,VWS V14.01,2013-06-16 10:39:00,
2013-06-16 05:41:00,69.9,65.2,29.86,SW,227,0.0,0.0,85,0.00,,---,0.00,VWS V14.01,2013-06-16 10:41:00,
2013-06-16 05:42:00,69.9,65.2,29.86,SW,227,0.0,0.0,85,0.00,,---,0.00,VWS V14.01,2013-06-16 10:42:00,
2013-06-16 05:44:00,69.9,64.8,29.86,SW,226,0.0,0.0,84,0.00,,---,0.00,VWS V14.01,2013-06-16 10:44:00,
2013-06-16 05:46:00,69.9,64.8,29.87,SW,226,0.0,0.0,84,0.00,,---,0.00,VWS V14.01,2013-06-16 10:46:00,
2013-06-16 05:47:00,69.9,64.8,29.87,SSW,209,0.0,0.0,84,0.00,,---,0.00,VWS V14.01,2013-06-16 10:47:00,
2013-06-16 05:49:00,69.9,64.8,29.87,SSW,209,0.0,0.0,84,0.00,,---,0.00,VWS V14.01,2013-06-16 10:49:00,
2013-06-16 05:51:00,69.9,64.8,29.87,SSW,209,0.0,0.0,84,0.00,,---,0.00,VWS V14.01,2013-06-16 10:51:00,
2013-06-16 05:52:00,69.9,64.8,29.87,SSW,209,0.0,0.0,84,0.00,,---,0.00,VWS V14.01,2013-06-16 10:52:00,
2013-06-16 05:54:00,69.9,64.8,29.87,SSW,209,0.0,0.0,84,0.00,,---,0.00,VWS V14.01,2013-06-16 10:54:00,
2013-06-16 05:56:00,69.8,64.8,29.87,SSW,209,0.0,0.0,84,0.00,,---,0.00,VWS V14.01,2013-06-16 10:56:00,
2013-06-16 05:57:00,69.8,64.8,29.87,SSW,209,0.0,0.0,84,0.00,,---,0.00,VWS V14.01,2013-06-16 10:57:00,
2013-06-16 05:59:00,69.8,64.8,29.87,SSW,209,0.0,0.0,84,0.00,,---,0.00,VWS V14.01,2013-06-16 10:59:00,
2013-06-16 06:01:00,69.6,64.9,29.88,SSW,209,0.0,0.0,85,0.00,,---,0.00,VWS V14.01,2013-06-16 11:01:00,
2013-06-16 06:02:00,69.6,64.9,29.88,SSW,209,0.0,0.0,85,0.00,,---,0.00,VWS V14.01,2013-06-16 11:02:00,
2013-06-16 06:04:00,69.6,64.9,29.88,SSW,209,0.0,0.0,85,0.00,,---,0.00,VWS V14.01,2013-06-16 11:04:00,
2013-06-16 06:06:00,69.4,65.0,29.88,SSW,209,0.0,0.0,86,0.00,,---,0.00,VWS V14.01,2013-06-16 11:06:00,
2013-06-16 06:07:00,69.4,65.0,29.88,SSW,209,0.0,0.0,86,0.00,,---,0.00,VWS V14.01,2013-06-16 11:07:00,
2013-06-16 06:09:00,69.3,64.9,29.88,SSW,209,0.0,0.0,86,0.00,,---,0.00,VWS V14.01,2013-06-16 11:09:00,
2013-06-16 06:11:00,69.3,64.9,29.88,SSW,209,0.0,0.0,86,0.00,,---,0.00,VWS V14.01,2013-06-16 11:11:00,
2013-06-16 06:12:00,69.3,64.9,29.88,SSW,209,0.0,0.0,86,0.00,,---,0.00,VWS V14.01,2013-06-16 11:12:00,
2013-06-16 06:15:00,69.1,64.7,29.87,SSW,209,0.0,0.0,86,0.00,,---,0.00,VWS V14.01,2013-06-16 11:15:00,
2013-06-16 06:16:00,69.1,64.7,29.87,SSW,209,0.0,0.0,86,0.00,,---,0.00,VWS V14.01,2013-06-16 11:16:00,
2013-06-16 06:17:00,69.1,64.7,29.87,SSW,209,0.0,0.0,86,0.00,,---,0.00,VWS V14.01,2013-06-16 11:17:00,
2013-06-16 06:20:00,69.1,64.7,29.87,SSW,209,0.0,0.0,86,0.00,,---,0.00,VWS V14.01,2013-06-16 11:20:00,
2013-06-16 06:21:00,69.1,64.7,29.87,SSW,209,0.0,0.0,86,0.00,,---,0.00,VWS V14.01,2013-06-16 11:21:00,
2013-06-16 06:22:00,69.1,64.7,29.87,SSW,209,0.0,0.0,86,0.00,,---,0.00,VWS V14.01,2013-06-16 11:22:00,
2013-06-16 06:25:00,69.1,64.7,29.87,SSW,209,0.0,0.0,86,0.00,,---,0.00,VWS V14.01,2013-06-16 11:25:00,
2013-06-16 06:26:00,69.1,64.7,29.87,SSW,209,0.0,0.0,86,0.00,,---,0.00,VWS V14.01,2013-06-16 11:26:00,
2013-06-16 06:27:00,69.1,64.7,29.87,SSW,209,0.0,0.0,86,0.00,,---,0.00,VWS V14.01,2013-06-16 11:27:00,
2013-06-16 06:30:00,69.1,64.7,29.86,SSW,209,0.0,0.0,86,0.00,,---,0.00,VWS V14.01,2013-06-16 11:30:00,
2013-06-16 06:31:00,69.1,64.7,29.86,SSW,209,0.0,0.0,86,0.00,,---,0.00,VWS V14.01,2013-06-16 11:31:00,
2013-06-16 06:32:00,69.1,64.7,29.86,SSW,209,0.0,0.0,86,0.00,,---,0.00,VWS V14.01,2013-06-16 11:32:00,
2013-06-16 06:35:00,69.1,64.7,29.86,SSW,209,0.0,0.0,86,0.00,,---,0.00,VWS V14.01,2013-06-16 11:35:00,
2013-06-16 06:36:00,69.1,64.7,29.86,SSW,209,0.0,0.0,86,0.00,,---,0.00,VWS V14.01,2013-06-16 11:36:00,
2013-06-16 06:37:00,69.1,64.7,29.86,SSW,209,0.0,0.0,86,0.00,,---,0.00,VWS V14.01,2013-06-16 11:37:00,
2013-06-16 06:40:00,69.1,64.4,29.86,SSW,209,0.0,0.0,85,0.00,,---,0.00,VWS V14.01,2013-06-16 11:40:00,
2013-06-16 06:41:00,69.1,64.4,29.86,SSW,209,0.0,0.0,85,0.00,,---,0.00,VWS V14.01,2013-06-16 11:41:00,
2013-06-16 06:42:00,69.1,64.4,29.86,SSW,209,0.0,0.0,85,0.00,,---,0.00,VWS V14.01,2013-06-16 11:42:00,
2013-06-16 06:45:00,69.1,64.4,29.87,SSW,209,0.0,1.0,85,0.00,,---,0.00,VWS V14.01,2013-06-16 11:45:00,
2013-06-16 06:46:00,69.3,64.6,29.87,SSW,209,0.0,1.0,85,0.00,,---,0.00,VWS V14.01,2013-06-16 11:46:00,
2013-06-16 06:47:00,69.3,64.6,29.87,SSW,213,0.0,1.0,85,0.00,,---,0.00,VWS V14.01,2013-06-16 11:47:00,
2013-06-16 06:50:00,69.3,64.6,29.87,SSW,213,0.0,1.0,85,0.00,,---,0.00,VWS V14.01,2013-06-16 11:50:00,
2013-06-16 06:51:00,69.3,64.6,29.87,SSW,213,0.0,0.0,85,0.00,,---,0.00,VWS V14.01,2013-06-16 11:51:00,
2013-06-16 06:52:00,69.3,64.6,29.87,SSW,213,0.0,0.0,85,0.00,,---,0.00,VWS V14.01,2013-06-16 11:52:00,
2013-06-16 06:55:00,69.4,64.4,29.87,West,266,0.0,4.0,84,0.00,,---,0.00,VWS V14.01,2013-06-16 11:55:00,
2013-06-16 06:57:00,69.4,64.4,29.87,West,266,0.0,4.0,84,0.00,,---,0.00,VWS V14.01,2013-06-16 11:57:00,
2013-06-16 06:58:00,69.6,64.6,29.87,West,267,0.0,4.0,84,0.00,,---,0.00,VWS V14.01,2013-06-16 11:58:00,
2013-06-16 07:00:00,69.8,64.4,29.87,West,271,3.0,6.0,83,0.00,,---,0.00,VWS V14.01,2013-06-16 12:00:00,
2013-06-16 07:02:00,69.8,64.4,29.87,WNW,292,6.0,6.0,83,0.00,,---,0.00,VWS V14.01,2013-06-16 12:02:00,
2013-06-16 07:03:00,69.9,64.2,29.87,WNW,294,0.0,10.0,82,0.00,,---,0.00,VWS V14.01,2013-06-16 12:03:00,
2013-06-16 07:05:00,70.1,64.4,29.87,WNW,293,0.0,10.0,82,0.00,,---,0.00,VWS V14.01,2013-06-16 12:05:00,
2013-06-16 07:07:00,70.3,64.6,29.87,WNW,292,0.0,10.0,82,0.00,,---,0.00,VWS V14.01,2013-06-16 12:07:00,
2013-06-16 07:08:00,70.3,64.6,29.87,WNW,286,0.0,10.0,82,0.00,,---,0.00,VWS V14.01,2013-06-16 12:08:00,
2013-06-16 07:10:00,70.4,64.7,29.87,WNW,287,0.0,10.0,82,0.00,,---,0.00,VWS V14.01,2013-06-16 12:10:00,
2013-06-16 07:12:00,70.4,64.7,29.87,West,277,0.0,1.0,82,0.00,,---,0.00,VWS V14.01,2013-06-16 12:12:00,
2013-06-16 07:13:00,70.4,64.7,29.87,West,277,0.0,1.0,82,0.00,,---,0.00,VWS V14.01,2013-06-16 12:13:00,
2013-06-16 07:15:00,70.6,64.8,29.87,West,277,0.0,1.0,82,0.00,,---,0.00,VWS V14.01,2013-06-16 12:15:00,
2013-06-16 07:17:00,70.6,64.8,29.87,West,277,0.0,1.0,82,0.00,,---,0.00,VWS V14.01,2013-06-16 12:17:00,
2013-06-16 07:18:00,70.6,65.2,29.87,West,277,0.0,1.0,83,0.00,,---,0.00,VWS V14.01,2013-06-16 12:18:00,
2013-06-16 07:20:00,70.6,65.2,29.87,West,277,0.0,1.0,83,0.00,,---,0.00,VWS V14.01,2013-06-16 12:20:00,
2013-06-16 07:22:00,70.6,65.2,29.87,West,279,0.0,5.0,83,0.00,,---,0.00,VWS V14.01,2013-06-16 12:22:00,
2013-06-16 07:23:00,70.6,65.2,29.87,West,279,0.0,5.0,83,0.00,,---,0.00,VWS V14.01,2013-06-16 12:23:00,
2013-06-16 07:25:00,70.6,65.2,29.87,West,279,0.0,5.0,83,0.00,,---,0.00,VWS V14.01,2013-06-16 12:25:00,
2013-06-16 07:27:00,70.8,65.4,29.87,West,279,0.0,5.0,83,0.00,,---,0.00,VWS V14.01,2013-06-16 12:27:00,
2013-06-16 07:28:00,70.8,65.4,29.87,West,279,0.0,5.0,83,0.00,,---,0.00,VWS V14.01,2013-06-16 12:28:00,
2013-06-16 07:30:00,70.9,65.8,29.89,West,279,0.0,5.0,84,0.00,,---,0.00,VWS V14.01,2013-06-16 12:30:00,
2013-06-16 07:32:00,70.9,65.8,29.89,West,279,0.0,0.0,84,0.00,,---,0.00,VWS V14.01,2013-06-16 12:32:00,
2013-06-16 07:33:00,70.9,65.8,29.89,West,279,0.0,0.0,84,0.00,,---,0.00,VWS V14.01,2013-06-16 12:33:00,
2013-06-16 07:35:00,70.9,65.8,29.89,West,279,0.0,0.0,84,0.00,,---,0.00,VWS V14.01,2013-06-16 12:35:00,
2013-06-16 07:37:00,70.9,65.8,29.89,West,279,0.0,0.0,84,0.00,,---,0.00,VWS V14.01,2013-06-16 12:37:00,
2013-06-16 07:38:00,70.8,65.7,29.89,West,279,0.0,0.0,84,0.00,,---,0.00,VWS V14.01,2013-06-16 12:38:00,
2013-06-16 07:40:00,70.8,66.1,29.89,West,279,0.0,0.0,85,0.00,,---,0.00,VWS V14.01,2013-06-16 12:40:00,
2013-06-16 07:42:00,70.9,66.2,29.89,West,279,0.0,0.0,85,0.00,,---,0.00,VWS V14.01,2013-06-16 12:42:00,
2013-06-16 07:43:00,70.8,66.1,29.89,West,279,0.0,0.0,85,0.00,,---,0.00,VWS V14.01,2013-06-16 12:43:00,
2013-06-16 07:46:00,70.8,66.1,29.90,NW,306,0.0,1.0,85,0.00,,---,0.00,VWS V14.01,2013-06-16 12:46:00,
2013-06-16 07:47:00,70.8,66.1,29.90,NW,306,0.0,1.0,85,0.00,,---,0.00,VWS V14.01,2013-06-16 12:47:00,
2013-06-16 07:48:00,70.8,66.1,29.90,NW,306,0.0,1.0,85,0.00,,---,0.00,VWS V14.01,2013-06-16 12:48:00,
2013-06-16 07:51:00,70.8,66.4,29.90,NW,306,0.0,0.0,86,0.00,,---,0.00,VWS V14.01,2013-06-16 12:51:00,
2013-06-16 07:52:00,70.8,66.4,29.90,NW,306,0.0,0.0,86,0.00,,---,0.00,VWS V14.01,2013-06-16 12:52:00,
2013-06-16 07:53:00,70.8,66.4,29.90,NW,306,0.0,0.0,86,0.00,,---,0.00,VWS V14.01,2013-06-16 12:53:00,
2013-06-16 07:54:00,70.9,66.5,29.90,NW,306,0.0,0.0,86,0.00,,---,0.00,VWS V14.01,2013-06-16 12:54:00,
2013-06-16 07:56:00,70.9,66.5,29.90,NW,306,0.0,0.0,86,0.00,,---,0.00,VWS V14.01,2013-06-16 12:56:00,
2013-06-16 07:57:00,71.1,66.7,29.90,NW,306,0.0,0.0,86,0.00,,---,0.00,VWS V14.01,2013-06-16 12:57:00,
2013-06-16 07:58:00,71.1,66.7,29.90,NW,306,0.0,0.0,86,0.00,,---,0.00,VWS V14.01,2013-06-16 12:58:00,
2013-06-16 07:59:00,71.1,66.7,29.90,NW,306,0.0,0.0,86,0.00,,---,0.00,VWS V14.01,2013-06-16 12:59:00,
2013-06-16 08:01:00,71.3,66.9,29.90,NW,306,0.0,0.0,86,0.00,,---,0.00,VWS V14.01,2013-06-16 13:01:00,
2013-06-16 08:02:00,71.3,66.9,29.90,NW,306,0.0,5.0,86,0.00,,---,0.00,VWS V14.01,2013-06-16 13:02:00,
2013-06-16 08:03:00,71.5,67.1,29.90,NW,306,0.0,5.0,86,0.00,,---,0.00,VWS V14.01,2013-06-16 13:03:00,
2013-06-16 08:04:00,71.5,67.1,29.90,NW,309,0.0,5.0,86,0.00,,---,0.00,VWS V14.01,2013-06-16 13:04:00,
2013-06-16 08:06:00,71.6,67.2,29.90,NNE,13,0.0,5.0,86,0.00,,---,0.00,VWS V14.01,2013-06-16 13:06:00,
2013-06-16 08:07:00,71.8,67.4,29.90,NNW,330,0.0,6.0,86,0.00,,---,0.00,VWS V14.01,2013-06-16 13:07:00,
2013-06-16 08:08:00,71.8,67.4,29.90,NNW,330,0.0,6.0,86,0.00,,---,0.00,VWS V14.01,2013-06-16 13:08:00,
2013-06-16 08:09:00,72.0,67.6,29.90,NNW,330,0.0,6.0,86,0.00,,---,0.00,VWS V14.01,2013-06-16 13:09:00,
2013-06-16 08:11:00,72.3,67.9,29.90,North,9,0.0,0.0,86,0.00,,---,0.00,VWS V14.01,2013-06-16 13:11:00,
2013-06-16 08:12:00,72.3,67.9,29.90,NNW,327,0.0,5.0,86,0.00,,---,0.00,VWS V14.01,2013-06-16 13:12:00,
2013-06-16 08:13:00,72.3,67.9,29.90,NNW,327,0.0,5.0,86,0.00,,---,0.00,VWS V14.01,2013-06-16 13:13:00,
2013-06-16 08:14:00,72.5,68.1,29.90,NE,42,0.0,5.0,86,0.00,,---,0.00,VWS V14.01,2013-06-16 13:14:00,
2013-06-16 08:16:00,72.5,68.1,29.90,NNW,337,2.0,5.0,86,0.00,,---,0.00,VWS V14.01,2013-06-16 13:16:00,
2013-06-16 08:17:00,72.5,68.1,29.90,NNW,336,0.0,5.0,86,0.00,,---,0.00,VWS V14.01,2013-06-16 13:17:00,
2013-06-16 08:18:00,72.5,68.1,29.90,NNW,336,0.0,5.0,86,0.00,,---,0.00,VWS V14.01,2013-06-16 13:18:00,
2013-06-16 08:19:00,72.5,68.1,29.90,NW,306,0.0,5.0,86,0.00,,---,0.00,VWS V14.01,2013-06-16 13:19:00,
2013-06-16 08:21:00,72.7,68.3,29.90,NW,306,0.0,0.0,86,0.00,,---,0.00,VWS V14.01,2013-06-16 13:21:00,
2013-06-16 08:22:00,72.7,68.3,29.90,NW,306,0.0,0.0,86,0.00,,---,0.00,VWS V14.01,2013-06-16 13:22:00,
2013-06-16 08:23:00,72.7,68.3,29.90,NW,306,0.0,2.0,86,0.00,,---,0.00,VWS V14.01,2013-06-16 13:23:00,
2013-06-16 08:24:00,72.7,68.3,29.90,NW,306,0.0,2.0,86,0.00,,---,0.00,VWS V14.01,2013-06-16 13:24:00,
2013-06-16 08:26:00,72.7,68.3,29.90,NW,306,0.0,2.0,86,0.00,,---,0.00,VWS V14.01,2013-06-16 13:26:00,
2013-06-16 08:27:00,72.8,68.4,29.90,NW,306,0.0,2.0,86,0.00,,---,0.00,VWS V14.01,2013-06-16 13:27:00,
2013-06-16 08:28:00,72.8,68.4,29.90,NW,306,0.0,2.0,86,0.00,,---,0.00,VWS V14.01,2013-06-16 13:28:00,
2013-06-16 08:30:00,72.8,68.7,29.91,NW,306,0.0,2.0,87,0.00,,---,0.00,VWS V14.01,2013-06-16 13:30:00,
2013-06-16 08:31:00,73.0,68.6,29.91,NW,306,0.0,0.0,86,0.00,,---,0.00,VWS V14.01,2013-06-16 13:31:00,
2013-06-16 08:32:00,72.8,68.4,29.91,NNW,327,4.0,6.0,86,0.00,,---,0.00,VWS V14.01,2013-06-16 13:32:00,
2013-06-16 08:33:00,72.8,68.4,29.91,NW,325,0.0,6.0,86,0.00,,---,0.00,VWS V14.01,2013-06-16 13:33:00,
2013-06-16 08:34:00,72.8,68.4,29.91,NW,326,2.0,6.0,86,0.00,,---,0.00,VWS V14.01,2013-06-16 13:34:00,
2013-06-16 08:35:00,72.8,68.7,29.91,NNW,327,0.0,6.0,87,0.00,,---,0.00,VWS V14.01,2013-06-16 13:35:00,
2013-06-16 08:36:00,72.8,68.7,29.91,NNW,327,0.0,6.0,87,0.00,,---,0.00,VWS V14.01,2013-06-16 13:36:00,
2013-06-16 08:37:00,72.8,68.7,29.91,NW,313,0.0,6.0,87,0.00,,---,0.00,VWS V14.01,2013-06-16 13:37:00,
2013-06-16 08:38:00,73.0,68.9,29.91,NW,313,0.0,6.0,87,0.00,,---,0.00,VWS V14.01,2013-06-16 13:38:00,
2013-06-16 08:39:00,73.0,68.9,29.91,NW,313,0.0,6.0,87,0.00,,---,0.00,VWS V14.01,2013-06-16 13:39:00,
2013-06-16 08:40:00,73.0,68.9,29.91,NW,313,0.0,6.0,87,0.00,,---,0.00,VWS V14.01,2013-06-16 13:40:00,
2013-06-16 08:41:00,73.0,68.9,29.91,NW,315,0.0,0.0,87,0.00,,---,0.00,VWS V14.01,2013-06-16 13:41:00,
2013-06-16 08:42:00,73.0,68.9,29.91,NW,315,0.0,0.0,87,0.00,,---,0.00,VWS V14.01,2013-06-16 13:42:00,
2013-06-16 08:43:00,73.0,68.9,29.91,NW,315,0.0,0.0,87,0.00,,---,0.00,VWS V14.01,2013-06-16 13:43:00,
2013-06-16 08:44:00,73.0,68.9,29.91,NW,315,0.0,0.0,87,0.00,,---,0.00,VWS V14.01,2013-06-16 13:44:00,
2013-06-16 08:45:00,73.0,68.9,29.91,NW,315,0.0,1.0,87,0.00,,---,0.00,VWS V14.01,2013-06-16 13:45:00,
2013-06-16 08:46:00,73.0,68.9,29.91,NW,315,0.0,1.0,87,0.00,,---,0.00,VWS V14.01,2013-06-16 13:46:00,
2013-06-16 08:47:00,73.2,69.1,29.91,NW,317,0.0,2.0,87,0.00,,---,0.00,VWS V14.01,2013-06-16 13:47:00,
2013-06-16 08:48:00,73.2,69.1,29.91,NW,317,0.0,2.0,87,0.00,,---,0.00,VWS V14.01,2013-06-16 13:48:00,
2013-06-16 08:49:00,73.2,69.1,29.91,NW,317,0.0,2.0,87,0.00,,---,0.00,VWS V14.01,2013-06-16 13:49:00,
2013-06-16 08:50:00,73.2,69.1,29.91,NNE,23,0.0,2.0,87,0.00,,---,0.00,VWS V14.01,2013-06-16 13:50:00,
2013-06-16 08:51:00,73.3,69.2,29.91,North,5,0.0,4.0,87,0.00,,---,0.00,VWS V14.01,2013-06-16 13:51:00,
2013-06-16 08:52:00,73.2,68.8,29.91,NNW,344,1.0,6.0,86,0.00,,---,0.00,VWS V14.01,2013-06-16 13:52:00,
2013-06-16 08:53:00,73.2,68.8,29.91,NNW,344,0.0,6.0,86,0.00,,---,0.00,VWS V14.01,2013-06-16 13:53:00,
2013-06-16 08:54:00,73.2,69.1,29.91,NNW,330,3.0,6.0,87,0.00,,---,0.00,VWS V14.01,2013-06-16 13:54:00,
2013-06-16 08:55:00,73.2,68.8,29.91,West,277,0.0,6.0,86,0.00,,---,0.00,VWS V14.01,2013-06-16 13:55:00,
2013-06-16 08:56:00,73.2,68.8,29.91,NNW,340,3.0,6.0,86,0.00,,---,0.00,VWS V14.01,2013-06-16 13:56:00,
2013-06-16 08:57:00,73.2,68.8,29.91,WNW,298,3.0,11.0,86,0.00,,---,0.00,VWS V14.01,2013-06-16 13:57:00,
2013-06-16 08:58:00,73.0,68.6,29.91,NW,313,4.0,11.0,86,0.00,,---,0.00,VWS V14.01,2013-06-16 13:58:00,
2013-06-16 08:59:00,73.0,68.6,29.91,NNW,329,1.0,11.0,86,0.00,,---,0.00,VWS V14.01,2013-06-16 13:59:00,
2013-06-16 09:00:00,73.0,68.9,29.91,NW,317,2.0,12.0,87,0.00,,---,0.00,VWS V14.01,2013-06-16 14:00:00,
2013-06-16 09:01:00,73.0,68.9,29.91,NW,324,2.0,6.0,87,0.00,,---,0.00,VWS V14.01,2013-06-16 14:01:00,
2013-06-16 09:02:00,72.8,68.7,29.91,NNW,328,7.0,7.0,87,0.00,,---,0.00,VWS V14.01,2013-06-16 14:02:00,
2013-06-16 09:03:00,72.8,68.7,29.91,WNW,303,2.0,8.0,87,0.00,,---,0.00,VWS V14.01,2013-06-16 14:03:00,
2013-06-16 09:04:00,72.8,69.4,29.91,NW,314,3.0,8.0,89,0.00,,---,0.00,VWS V14.01,2013-06-16 14:04:00,
2013-06-16 09:05:00,72.8,68.7,29.91,NNW,328,3.0,8.0,87,0.00,,---,0.00,VWS V14.01,2013-06-16 14:05:00,
2013-06-16 09:06:00,72.8,68.7,29.91,NW,310,3.0,8.0,87,0.00,,---,0.00,VWS V14.01,2013-06-16 14:06:00,
2013-06-16 09:07:00,72.8,68.7,29.91,WNW,299,0.0,8.0,87,0.00,,---,0.00,VWS V14.01,2013-06-16 14:07:00,
2013-06-16 09:08:00,72.8,68.7,29.91,WNW,303,0.0,8.0,87,0.00,,---,0.00,VWS V14.01,2013-06-16 14:08:00,
2013-06-16 09:09:00,72.8,68.7,29.91,WNW,303,0.0,8.0,87,0.00,,---,0.00,VWS V14.01,2013-06-16 14:09:00,
2013-06-16 09:10:00,72.8,68.7,29.91,NW,304,0.0,8.0,87,0.00,,---,0.00,VWS V14.01,2013-06-16 14:10:00,
2013-06-16 09:11:00,73.0,68.9,29.91,NW,304,0.0,0.0,87,0.00,,---,0.00,VWS V14.01,2013-06-16 14:11:00,
2013-06-16 09:12:00,73.0,68.9,29.91,WNW,303,0.0,2.0,87,0.00,,---,0.00,VWS V14.01,2013-06-16 14:12:00,
2013-06-16 09:14:00,73.0,68.9,29.91,WNW,303,0.0,2.0,87,0.00,,---,0.00,VWS V14.01,2013-06-16 14:14:00,
2013-06-16 09:15:00,73.0,68.9,29.92,West,280,8.0,9.0,87,0.00,,---,0.00,VWS V14.01,2013-06-16 14:15:00,
2013-06-16 09:16:00,73.0,68.9,29.92,NW,320,12.0,13.0,87,0.00,,---,0.00,VWS V14.01,2013-06-16 14:16:00,
2013-06-16 09:17:00,72.8,68.7,29.92,NNW,341,4.0,13.0,87,0.00,,---,0.00,VWS V14.01,2013-06-16 14:17:00,
2013-06-16 09:19:00,72.7,68.6,29.92,NW,309,0.0,13.0,87,0.00,,---,0.00,VWS V14.01,2013-06-16 14:19:00,
2013-06-16 09:20:00,72.7,68.6,29.92,NW,319,8.0,13.0,87,0.00,,---,0.00,VWS V14.01,2013-06-16 14:20:00,
2013-06-16 09:21:00,72.7,68.6,29.92,West,281,5.0,10.0,87,0.00,,---,0.00,VWS V14.01,2013-06-16 14:21:00,
2013-06-16 09:22:00,72.7,68.6,29.92,NW,313,0.0,10.0,87,0.00,,---,0.00,VWS V14.01,2013-06-16 14:22:00,
2013-06-16 09:24:00,72.7,68.6,29.92,WNW,293,0.0,10.0,87,0.00,,---,0.00,VWS V14.01,2013-06-16 14:24:00,
2013-06-16 09:25:00,72.5,68.4,29.92,WNW,283,1.0,10.0,87,0.00,,---,0.00,VWS V14.01,2013-06-16 14:25:00,
2013-06-16 09:26:00,72.7,68.6,29.92,NNW,336,7.0,10.0,87,0.00,,---,0.00,VWS V14.01,2013-06-16 14:26:00,
2013-06-16 09:27:00,72.5,68.8,29.92,ENE,57,1.0,10.0,88,0.00,,---,0.00,VWS V14.01,2013-06-16 14:27:00,
2013-06-16 09:29:00,72.5,68.4,29.92,NNE,30,0.0,10.0,87,0.00,,---,0.00,VWS V14.01,2013-06-16 14:29:00,
2013-06-16 09:30:00,72.5,68.4,29.92,NW,317,0.0,10.0,87,0.00,,---,0.00,VWS V14.01,2013-06-16 14:30:00,
2013-06-16 09:31:00,72.5,68.4,29.92,NW,317,0.0,0.0,87,0.00,,---,0.00,VWS V14.01,2013-06-16 14:31:00,
2013-06-16 09:32:00,72.3,68.2,29.92,NNW,338,0.0,6.0,87,0.00,,---,0.00,VWS V14.01,2013-06-16 14:32:00,
2013-06-16 09:34:00,72.3,68.2,29.92,West,279,9.0,10.0,87,0.00,,---,0.00,VWS V14.01,2013-06-16 14:34:00,
2013-06-16 09:35:00,72.3,68.2,29.92,NW,312,0.0,10.0,87,0.00,,---,0.00,VWS V14.01,2013-06-16 14:35:00,
2013-06-16 09:36:00,72.3,68.2,29.92,NW,319,0.0,10.0,87,0.00,,---,0.00,VWS V14.01,2013-06-16 14:36:00,
2013-06-16 09:38:00,72.3,68.2,29.92,NNW,333,0.0,10.0,87,0.00,,---,0.00,VWS V14.01,2013-06-16 14:38:00,
2013-06-16 09:39:00,72.5,68.4,29.92,NW,320,0.0,10.0,87,0.00,,---,0.00,VWS V14.01,2013-06-16 14:39:00,
2013-06-16 09:40:00,72.5,68.4,29.92,NW,321,0.0,10.0,87,0.00,,---,0.00,VWS V14.01,2013-06-16 14:40:00,
2013-06-16 09:41:00,72.5,68.8,29.92,NW,321,0.0,0.0,88,0.00,,---,0.00,VWS V14.01,2013-06-16 14:41:00,
2013-06-16 09:43:00,72.5,68.4,29.92,NW,325,4.0,4.0,87,0.00,,---,0.00,VWS V14.01,2013-06-16 14:43:00,
2013-06-16 09:44:00,72.5,68.4,29.92,West,277,0.0,4.0,87,0.00,,---,0.00,VWS V14.01,2013-06-16 14:44:00,
2013-06-16 09:45:00,72.7,68.6,29.92,West,277,0.0,4.0,87,0.00,,---,0.00,VWS V14.01,2013-06-16 14:45:00,
2013-06-16 09:46:00,72.7,68.6,29.92,North,5,1.0,5.0,87,0.00,,---,0.00,VWS V14.01,2013-06-16 14:46:00,
2013-06-16 09:48:00,72.7,68.6,29.92,NNW,348,0.0,5.0,87,0.00,,---,0.00,VWS V14.01,2013-06-16 14:48:00,
2013-06-16 09:49:00,72.7,68.6,29.92,NNE,12,0.0,5.0,87,0.00,,---,0.00,VWS V14.01,2013-06-16 14:49:00,
2013-06-16 09:50:00,72.7,68.6,29.92,NNE,12,0.0,5.0,87,0.00,,---,0.00,VWS V14.01,2013-06-16 14:50:00,
2013-06-16 09:51:00,72.7,68.6,29.92,NNE,12,0.0,0.0,87,0.00,,---,0.00,VWS V14.01,2013-06-16 14:51:00,
2013-06-16 09:53:00,72.8,68.7,29.92,NE,51,7.0,7.0,87,0.00,,---,0.00,VWS V14.01,2013-06-16 14:53:00,
2013-06-16 09:54:00,72.8,68.7,29.92,NE,36,0.0,7.0,87,0.00,,---,0.00,VWS V14.01,2013-06-16 14:54:00,
2013-06-16 09:55:00,72.8,68.7,29.92,NNE,22,3.0,7.0,87,0.00,,---,0.00,VWS V14.01,2013-06-16 14:55:00,
2013-06-16 09:56:00,72.8,68.7,29.92,NE,37,6.0,9.0,87,0.00,,---,0.00,VWS V14.01,2013-06-16 14:56:00,
2013-06-16 09:58:00,72.8,68.7,29.92,NNE,25,5.0,9.0,87,0.00,,---,0.00,VWS V14.01,2013-06-16 14:58:00,
2013-06-16 09:59:00,72.8,68.7,29.92,North,355,0.0,9.0,87,0.00,,---,0.00,VWS V14.01,2013-06-16 14:59:00,
2013-06-16 10:00:00,72.8,68.7,29.91,North,355,0.0,9.0,87,0.00,,---,0.00,VWS V14.01,2013-06-16 15:00:00,
2013-06-16 10:01:00,72.8,68.7,29.91,NNE,26,0.0,1.0,87,0.00,,---,0.00,VWS V14.01,2013-06-16 15:01:00,
2013-06-16 10:03:00,72.8,68.7,29.91,NNE,16,2.0,8.0,87,0.00,,---,0.00,VWS V14.01,2013-06-16 15:03:00,
2013-06-16 10:04:00,72.8,68.7,29.91,North,355,0.0,8.0,87,0.00,,---,0.00,VWS V14.01,2013-06-16 15:04:00,
2013-06-16 10:05:00,72.8,68.7,29.91,North,360,0.0,8.0,87,0.00,,---,0.00,VWS V14.01,2013-06-16 15:05:00,
2013-06-16 10:06:00,73.0,68.6,29.91,NNE,24,0.0,8.0,86,0.00,,---,0.00,VWS V14.01,2013-06-16 15:06:00,
2013-06-16 10:08:00,73.0,68.6,29.91,North,355,4.0,8.0,86,0.00,,---,0.00,VWS V14.01,2013-06-16 15:08:00,
2013-06-16 10:09:00,73.0,68.6,29.91,NNW,348,4.0,9.0,86,0.00,,---,0.00,VWS V14.01,2013-06-16 15:09:00,
2013-06-16 10:10:00,73.0,68.6,29.91,NE,49,0.0,9.0,86,0.00,,---,0.00,VWS V14.01,2013-06-16 15:10:00,
2013-06-16 10:11:00,73.0,68.6,29.91,NE,46,1.0,3.0,86,0.00,,---,0.00,VWS V14.01,2013-06-16 15:11:00,
2013-06-16 10:12:00,73.0,68.6,29.91,NE,48,0.0,3.0,86,0.00,,---,0.00,VWS V14.01,2013-06-16 15:12:00,
2013-06-16 10:13:00,73.0,68.6,29.91,North,355,0.0,9.0,86,0.00,,---,0.00,VWS V14.01,2013-06-16 15:13:00,
2013-06-16 10:14:00,73.2,68.8,29.91,North,355,0.0,9.0,86,0.00,,---,0.00,VWS V14.01,2013-06-16 15:14:00,
2013-06-16 10:15:00,73.2,68.8,29.91,NNE,19,4.0,9.0,86,0.00,,---,0.00,VWS V14.01,2013-06-16 15:15:00,
2013-06-16 10:16:00,73.2,68.8,29.91,NE,40,6.0,10.0,86,0.00,,---,0.00,VWS V14.01,2013-06-16 15:16:00,
2013-06-16 10:17:00,73.2,68.8,29.91,NNE,21,4.0,10.0,86,0.00,,---,0.00,VWS V14.01,2013-06-16 15:17:00,
2013-06-16 10:18:00,73.0,68.2,29.91,NE,53,7.0,10.0,85,0.00,,---,0.00,VWS V14.01,2013-06-16 15:18:00,
2013-06-16 10:19:00,73.0,68.6,29.91,NE,52,5.0,10.0,86,0.00,,---,0.00,VWS V14.01,2013-06-16 15:19:00,
2013-06-16 10:20:00,73.2,68.8,29.91,North,9,0.0,10.0,86,0.00,,---,0.00,VWS V14.01,2013-06-16 15:20:00,
2013-06-16 10:22:00,73.2,68.8,29.91,NE,40,0.0,1.0,86,0.00,,---,0.00,VWS V14.01,2013-06-16 15:22:00,
2013-06-16 10:23:00,73.3,68.9,29.91,North,350,1.0,4.0,86,0.00,,---,0.00,VWS V14.01,2013-06-16 15:23:00,
2013-06-16 10:24:00,73.3,68.5,29.91,North,355,4.0,9.0,85,0.00,,---,0.00,VWS V14.01,2013-06-16 15:24:00,
2013-06-16 10:25:00,73.3,68.5,29.91,North,360,0.0,9.0,85,0.00,,---,0.00,VWS V14.01,2013-06-16 15:25:00,
2013-06-16 10:27:00,73.3,68.5,29.91,North,360,0.0,9.0,85,0.00,,---,0.00,VWS V14.01,2013-06-16 15:27:00,
2013-06-16 10:28:00,73.3,68.5,29.91,North,5,0.0,9.0,85,0.00,,---,0.00,VWS V14.01,2013-06-16 15:28:00,
2013-06-16 10:29:00,73.5,68.7,29.91,North,5,0.0,9.0,85,0.00,,---,0.00,VWS V14.01,2013-06-16 15:29:00,
2013-06-16 10:30:00,73.5,68.7,29.91,North,9,0.0,9.0,85,0.00,,---,0.00,VWS V14.01,2013-06-16 15:30:00,
2013-06-16 10:32:00,73.5,68.7,29.91,NE,34,0.0,11.0,85,0.00,,---,0.00,VWS V14.01,2013-06-16 15:32:00,
2013-06-16 10:33:00,73.7,68.9,29.91,NNE,16,0.0,11.0,85,0.00,,---,0.00,VWS V14.01,2013-06-16 15:33:00,
2013-06-16 10:34:00,73.7,68.6,29.91,NNE,32,0.0,11.0,84,0.00,,---,0.00,VWS V14.01,2013-06-16 15:34:00,
2013-06-16 10:35:00,73.7,68.6,29.91,NNE,28,2.0,11.0,84,0.00,,---,0.00,VWS V14.01,2013-06-16 15:35:00,
2013-06-16 10:37:00,73.7,68.6,29.91,NE,45,6.0,11.0,84,0.00,,---,0.00,VWS V14.01,2013-06-16 15:37:00,
2013-06-16 10:38:00,73.7,68.6,29.91,NNE,17,10.0,12.0,84,0.00,,---,0.00,VWS V14.01,2013-06-16 15:38:00,
2013-06-16 10:40:00,73.7,68.6,29.91,North,5,9.0,12.0,84,0.00,,---,0.00,VWS V14.01,2013-06-16 15:40:00,
2013-06-16 10:42:00,73.7,68.6,29.91,NE,53,6.0,11.0,84,0.00,,---,0.00,VWS V14.01,2013-06-16 15:42:00,
2013-06-16 10:44:00,73.9,68.8,29.91,NE,54,4.0,11.0,84,0.00,,---,0.00,VWS V14.01,2013-06-16 15:44:00,
2013-06-16 10:45:00,73.9,68.8,29.91,NE,54,11.0,14.0,84,0.00,,---,0.00,VWS V14.01,2013-06-16 15:45:00,
2013-06-16 10:47:00,74.0,68.9,29.91,NE,43,5.0,14.0,84,0.00,,---,0.00,VWS V14.01,2013-06-16 15:47:00,
2013-06-16 10:49:00,74.0,68.5,29.91,NE,39,4.0,14.0,83,0.00,,---,0.00,VWS V14.01,2013-06-16 15:49:00,
2013-06-16 10:50:00,74.0,68.5,29.91,NE,38,0.0,14.0,83,0.00,,---,0.00,VWS V14.01,2013-06-16 15:50:00,
2013-06-16 10:52:00,74.2,68.7,29.91,NE,51,5.0,11.0,83,0.00,,---,0.00,VWS V14.01,2013-06-16 15:52:00,
2013-06-16 10:54:00,74.2,68.7,29.91,NE,55,10.0,13.0,83,0.00,,---,0.00,VWS V14.01,2013-06-16 15:54:00,
2013-06-16 10:55:00,74.0,68.2,29.91,NE,40,3.0,13.0,82,0.00,,---,0.00,VWS V14.01,2013-06-16 15:55:00,
2013-06-16 10:56:00,74.2,68.7,29.91,NE,52,3.0,13.0,83,0.00,,---,0.00,VWS V14.01,2013-06-16 15:56:00,
2013-06-16 10:57:00,74.2,68.7,29.91,NE,46,4.0,13.0,83,0.00,,---,0.00,VWS V14.01,2013-06-16 15:57:00,
2013-06-16 10:59:00,74.4,68.9,29.91,NE,51,8.0,13.0,83,0.00,,---,0.00,VWS V14.01,2013-06-16 15:59:00,
2013-06-16 11:00:00,74.4,68.6,29.91,NE,51,6.0,13.0,82,0.00,,---,0.00,VWS V14.01,2013-06-16 16:00:00,
2013-06-16 11:01:00,74.4,68.6,29.91,ENE,70,7.0,9.0,82,0.00,,---,0.00,VWS V14.01,2013-06-16 16:01:00,
2013-06-16 11:02:00,74.4,68.6,29.91,ENE,63,6.0,9.0,82,0.00,,---,0.00,VWS V14.01,2013-06-16 16:02:00,
2013-06-16 11:04:00,74.4,68.6,29.91,ENE,58,10.0,11.0,82,0.00,,---,0.00,VWS V14.01,2013-06-16 16:04:00,
2013-06-16 11:05:00,74.4,68.2,29.91,ENE,67,6.0,11.0,81,0.00,,---,0.00,VWS V14.01,2013-06-16 16:05:00,
2013-06-16 11:06:00,74.2,68.0,29.91,ENE,63,7.0,11.0,81,0.00,,---,0.00,VWS V14.01,2013-06-16 16:06:00,
2013-06-16 11:08:00,74.2,68.4,29.91,NE,46,3.0,11.0,82,0.00,,---,0.00,VWS V14.01,2013-06-16 16:08:00,
2013-06-16 11:09:00,74.2,68.4,29.91,NE,44,0.0,11.0,82,0.00,,---,0.00,VWS V14.01,2013-06-16 16:09:00,
2013-06-16 11:10:00,74.4,68.6,29.91,NE,49,7.0,11.0,82,0.00,,---,0.00,VWS V14.01,2013-06-16 16:10:00,
2013-06-16 11:11:00,74.4,68.6,29.91,ENE,57,1.0,6.0,82,0.00,,---,0.00,VWS V14.01,2013-06-16 16:11:00,
2013-06-16 11:13:00,74.4,68.6,29.91,NE,38,4.0,7.0,82,0.00,,---,0.00,VWS V14.01,2013-06-16 16:13:00,
2013-06-16 11:14:00,74.4,68.6,29.91,NE,42,7.0,7.0,82,0.00,,---,0.00,VWS V14.01,2013-06-16 16:14:00,
2013-06-16 11:15:00,74.4,68.6,29.91,NNE,30,0.0,7.0,82,0.00,,---,0.00,VWS V14.01,2013-06-16 16:15:00,
2013-06-16 11:16:00,74.6,68.8,29.91,North,11,3.0,7.0,82,0.00,,---,0.00,VWS V14.01,2013-06-16 16:16:00,
2013-06-16 11:18:00,74.6,68.8,29.91,NE,47,6.0,8.0,82,0.00,,---,0.00,VWS V14.01,2013-06-16 16:18:00,
2013-06-16 11:19:00,74.6,68.4,29.91,NNE,32,2.0,8.0,81,0.00,,---,0.00,VWS V14.01,2013-06-16 16:19:00,
2013-06-16 11:21:00,74.7,68.8,29.91,NE,39,0.0,0.0,82,0.00,,---,0.00,VWS V14.01,2013-06-16 16:21:00,
2013-06-16 11:23:00,74.7,68.8,29.91,NNE,29,0.0,5.0,82,0.00,,---,0.00,VWS V14.01,2013-06-16 16:23:00,
2013-06-16 11:24:00,74.7,68.5,29.91,NNE,30,0.0,5.0,81,0.00,,---,0.00,VWS V14.01,2013-06-16 16:24:00,
2013-06-16 11:26:00,74.9,69.0,29.91,NNE,30,0.0,5.0,82,0.00,,---,0.00,VWS V14.01,2013-06-16 16:26:00,
2013-06-16 11:28:00,75.1,69.2,29.91,NNE,30,0.0,5.0,82,0.00,,---,0.00,VWS V14.01,2013-06-16 16:28:00,
2013-06-16 11:29:00,75.1,68.9,29.91,NNE,30,0.0,5.0,81,0.00,,---,0.00,VWS V14.01,2013-06-16 16:29:00,
2013-06-16 11:31:00,75.1,68.5,29.91,NE,45,4.0,6.0,80,0.00,,---,0.00,VWS V14.01,2013-06-16 16:31:00,
2013-06-16 11:33:00,75.1,68.5,29.91,NE,47,0.0,6.0,80,0.00,,---,0.00,VWS V14.01,2013-06-16 16:33:00,
2013-06-16 11:34:00,75.1,68.5,29.91,NE,48,0.0,6.0,80,0.00,,---,0.00,VWS V14.01,2013-06-16 16:34:00,
2013-06-16 11:36:00,75.1,68.5,29.91,ENE,59,5.0,6.0,80,0.00,,---,0.00,VWS V14.01,2013-06-16 16:36:00,
2013-06-16 11:38:00,75.3,68.7,29.91,NE,35,2.0,7.0,80,0.00,,---,0.00,VWS V14.01,2013-06-16 16:38:00,
2013-06-16 11:39:00,75.3,68.7,29.91,NE,36,0.0,7.0,80,0.00,,---,0.00,VWS V14.01,2013-06-16 16:39:00,
2013-06-16 11:41:00,75.4,68.8,29.91,NE,43,0.0,0.0,80,0.00,,---,0.00,VWS V14.01,2013-06-16 16:41:00,
2013-06-16 11:42:00,75.4,68.8,29.91,NE,43,0.0,0.0,80,0.00,,---,0.00,VWS V14.01,2013-06-16 16:42:00,
2013-06-16 11:43:00,75.4,68.4,29.91,NE,42,2.0,9.0,79,0.00,,---,0.00,VWS V14.01,2013-06-16 16:43:00,
2013-06-16 11:44:00,75.4,68.4,29.91,NE,44,0.0,9.0,79,0.00,,---,0.00,VWS V14.01,2013-06-16 16:44:00,
2013-06-16 11:46:00,75.6,68.6,29.92,ENE,69,7.0,9.0,79,0.00,,---,0.00,VWS V14.01,2013-06-16 16:46:00,
2013-06-16 11:47:00,75.6,68.6,29.92,ENE,66,7.0,10.0,79,0.00,,---,0.00,VWS V14.01,2013-06-16 16:47:00,
2013-06-16 11:48:00,75.6,68.6,29.92,ENE,62,7.0,10.0,79,0.00,,---,0.00,VWS V14.01,2013-06-16 16:48:00,
2013-06-16 11:49:00,75.4,68.4,29.92,NE,38,4.0,10.0,79,0.00,,---,0.00,VWS V14.01,2013-06-16 16:49:00,
2013-06-16 11:51:00,75.3,68.3,29.92,NE,43,0.0,5.0,79,0.00,,---,0.00,VWS V14.01,2013-06-16 16:51:00,
2013-06-16 11:52:00,75.3,68.3,29.92,NE,52,5.0,6.0,79,0.00,,---,0.00,VWS V14.01,2013-06-16 16:52:00,
2013-06-16 11:53:00,75.4,68.8,29.92,NE,53,5.0,6.0,80,0.00,,---,0.00,VWS V14.01,2013-06-16 16:53:00,
2013-06-16 11:54:00,75.4,68.4,29.92,NE,55,3.0,7.0,79,0.00,,---,0.00,VWS V14.01,2013-06-16 16:54:00,
2013-06-16 11:56:00,75.6,68.6,29.92,NE,55,0.0,7.0,79,0.00,,---,0.00,VWS V14.01,2013-06-16 16:56:00,
2013-06-16 11:57:00,75.6,68.6,29.92,NE,55,0.0,7.0,79,0.00,,---,0.00,VWS V14.01,2013-06-16 16:57:00,
2013-06-16 11:58:00,75.8,68.8,29.92,NE,55,0.0,7.0,79,0.00,,---,0.00,VWS V14.01,2013-06-16 16:58:00,
2013-06-16 11:59:00,75.8,68.8,29.92,NE,53,2.0,7.0,79,0.00,,---,0.00,VWS V14.01,2013-06-16 16:59:00,
2013-06-16 12:01:00,75.8,68.8,29.92,NE,51,5.0,5.0,79,0.00,,---,0.00,VWS V14.01,2013-06-16 17:01:00,
2013-06-16 12:02:00,75.8,68.8,29.92,NE,53,2.0,6.0,79,0.00,,---,0.00,VWS V14.01,2013-06-16 17:02:00,
2013-06-16 12:03:00,76.0,69.0,29.92,ENE,65,5.0,7.0,79,0.00,,---,0.00,VWS V14.01,2013-06-16 17:03:00,
2013-06-16 12:04:00,76.0,69.0,29.92,ENE,65,3.0,7.0,79,0.00,,---,0.00,VWS V14.01,2013-06-16 17:04:00,
2013-06-16 12:06:00,76.1,69.1,29.92,ENE,63,0.0,7.0,79,0.00,,---,0.00,VWS V14.01,2013-06-16 17:06:00,
2013-06-16 12:07:00,76.1,69.1,29.92,ENE,63,0.0,7.0,79,0.00,,---,0.00,VWS V14.01,2013-06-16 17:07:00,
2013-06-16 12:08:00,76.3,69.3,29.92,NNE,31,3.0,7.0,79,0.00,,---,0.00,VWS V14.01,2013-06-16 17:08:00,
2013-06-16 12:09:00,76.5,69.1,29.92,NNE,33,7.0,10.0,78,0.00,,---,0.00,VWS V14.01,2013-06-16 17:09:00,
2013-06-16 12:11:00,76.7,69.3,29.92,ENE,57,10.0,10.0,78,0.00,,---,0.00,VWS V14.01,2013-06-16 17:11:00,
2013-06-16 12:12:00,76.7,68.9,29.92,NE,42,3.0,10.0,77,0.00,,---,0.00,VWS V14.01,2013-06-16 17:12:00,
2013-06-16 12:13:00,76.8,68.7,29.92,ENE,61,9.0,10.0,76,0.00,,---,0.00,VWS V14.01,2013-06-16 17:13:00,
2013-06-16 12:14:00,76.8,68.7,29.92,NE,42,7.0,11.0,76,0.00,,---,0.00,VWS V14.01,2013-06-16 17:14:00,
2013-06-16 12:16:00,76.7,68.6,29.92,ENE,60,10.0,12.0,76,0.00,,---,0.00,VWS V14.01,2013-06-16 17:16:00,
2013-06-16 12:17:00,76.5,68.4,29.92,NNE,30,2.0,12.0,76,0.00,,---,0.00,VWS V14.01,2013-06-16 17:17:00,
2013-06-16 12:18:00,76.5,68.4,29.92,NE,48,6.0,12.0,76,0.00,,---,0.00,VWS V14.01,2013-06-16 17:18:00,
2013-06-16 12:19:00,76.5,68.4,29.92,ENE,59,3.0,12.0,76,0.00,,---,0.00,VWS V14.01,2013-06-16 17:19:00,
2013-06-16 12:21:00,76.5,68.4,29.92,ENE,57,12.0,12.0,76,0.00,,---,0.00,VWS V14.01,2013-06-16 17:21:00,
2013-06-16 12:22:00,76.5,68.4,29.92,NE,50,4.0,12.0,76,0.00,,---,0.00,VWS V14.01,2013-06-16 17:22:00,
2013-06-16 12:23:00,76.7,68.6,29.92,ENE,73,6.0,14.0,76,0.00,,---,0.00,VWS V14.01,2013-06-16 17:23:00,
2013-06-16 12:24:00,76.7,68.6,29.92,NE,38,4.0,14.0,76,0.00,,---,0.00,VWS V14.01,2013-06-16 17:24:00,
2013-06-16 12:26:00,76.8,68.3,29.92,ENE,59,7.0,14.0,75,0.00,,---,0.00,VWS V14.01,2013-06-16 17:26:00,
2013-06-16 12:27:00,76.8,68.3,29.92,ENE,58,7.0,14.0,75,0.00,,---,0.00,VWS V14.01,2013-06-16 17:27:00,
2013-06-16 12:28:00,76.8,67.9,29.92,NE,46,5.0,14.0,74,0.00,,---,0.00,VWS V14.01,2013-06-16 17:28:00,
2013-06-16 12:29:00,76.8,67.9,29.92,NE,46,4.0,14.0,74,0.00,,---,0.00,VWS V14.01,2013-06-16 17:29:00,
2013-06-16 12:31:00,76.8,68.3,29.91,NE,43,4.0,13.0,75,0.00,,---,0.00,VWS V14.01,2013-06-16 17:31:00,
2013-06-16 12:32:00,76.8,68.3,29.91,ENE,57,13.0,13.0,75,0.00,,---,0.00,VWS V14.01,2013-06-16 17:32:00,
2013-06-16 12:33:00,77.0,68.1,29.91,NE,34,10.0,15.0,74,0.00,,---,0.00,VWS V14.01,2013-06-16 17:33:00,
2013-06-16 12:34:00,77.0,68.1,29.91,NE,49,10.0,15.0,74,0.00,,---,0.00,VWS V14.01,2013-06-16 17:34:00,
2013-06-16 12:36:00,77.2,68.7,29.91,NE,56,0.0,15.0,75,0.00,,---,0.00,VWS V14.01,2013-06-16 17:36:00,
2013-06-16 12:37:00,77.4,68.9,29.91,ENE,57,0.0,15.0,75,0.00,,---,0.00,VWS V14.01,2013-06-16 17:37:00,
2013-06-16 12:38:00,77.4,68.5,29.91,NNE,17,7.0,15.0,74,0.00,,---,0.00,VWS V14.01,2013-06-16 17:38:00,
2013-06-16 12:39:00,77.4,68.5,29.91,North,9,5.0,15.0,74,0.00,,---,0.00,VWS V14.01,2013-06-16 17:39:00,
2013-06-16 12:42:00,77.6,68.7,29.91,NE,43,4.0,4.0,74,0.00,,---,0.00,VWS V14.01,2013-06-16 17:42:00,
2013-06-16 12:44:00,77.7,68.8,29.91,NE,54,4.0,8.0,74,0.00,,---,0.00,VWS V14.01,2013-06-16 17:44:00,
2013-06-16 12:47:00,78.1,69.1,29.91,North,5,6.0,8.0,74,0.00,,---,0.00,VWS V14.01,2013-06-16 17:47:00,
2013-06-16 12:49:00,78.5,69.1,29.91,NE,42,2.0,8.0,73,0.00,,---,0.00,VWS V14.01,2013-06-16 17:49:00,
2013-06-16 12:50:00,78.5,69.1,29.91,NE,47,9.0,9.0,73,0.00,,---,0.00,VWS V14.01,2013-06-16 17:50:00,
2013-06-16 12:52:00,78.6,68.8,29.91,NNE,22,7.0,15.0,72,0.00,,---,0.00,VWS V14.01,2013-06-16 17:52:00,
2013-06-16 12:54:00,78.6,68.8,29.91,ENE,61,0.0,15.0,72,0.00,,---,0.00,VWS V14.01,2013-06-16 17:54:00,
2013-06-16 12:55:00,78.8,69.0,29.91,NNE,33,7.0,15.0,72,0.00,,---,0.00,VWS V14.01,2013-06-16 17:55:00,
2013-06-16 12:57:00,78.8,68.6,29.91,ENE,59,9.0,15.0,71,0.00,,---,0.00,VWS V14.01,2013-06-16 17:57:00,
2013-06-16 12:59:00,78.6,68.0,29.91,NE,41,14.0,17.0,70,0.00,,---,0.00,VWS V14.01,2013-06-16 17:59:00,
2013-06-16 13:00:00,78.6,68.4,29.91,NE,49,7.0,17.0,71,0.00,,---,0.00,VWS V14.01,2013-06-16 18:00:00,
2013-06-16 13:02:00,78.6,68.4,29.91,NE,42,7.0,12.0,71,0.00,,---,0.00,VWS V14.01,2013-06-16 18:02:00,
2013-06-16 13:03:00,78.6,69.2,29.91,ENE,61,10.0,14.0,73,0.00,,---,0.00,VWS V14.01,2013-06-16 18:03:00,
2013-06-16 13:04:00,78.8,69.4,29.91,ENE,67,11.0,14.0,73,0.00,,---,0.00,VWS V14.01,2013-06-16 18:04:00,
2013-06-16 13:05:00,79.0,68.8,29.91,NNE,19,4.0,14.0,71,0.00,,---,0.00,VWS V14.01,2013-06-16 18:05:00,
2013-06-16 13:07:00,79.2,69.0,29.91,NE,44,3.0,14.0,71,0.00,,---,0.00,VWS V14.01,2013-06-16 18:07:00,
2013-06-16 13:08:00,79.4,69.2,29.91,NNE,17,2.0,14.0,71,0.00,,---,0.00,VWS V14.01,2013-06-16 18:08:00,
2013-06-16 13:09:00,79.6,69.8,29.91,North,10,1.0,14.0,72,0.00,,---,0.00,VWS V14.01,2013-06-16 18:09:00,
2013-06-16 13:10:00,79.8,69.6,29.91,NE,54,5.0,14.0,71,0.00,,---,0.00,VWS V14.01,2013-06-16 18:10:00,
2013-06-16 13:12:00,80.1,69.9,29.91,NE,51,5.0,10.0,71,0.00,,---,0.00,VWS V14.01,2013-06-16 18:12:00,
2013-06-16 13:13:00,80.3,70.1,29.91,North,355,7.0,10.0,71,0.00,,---,0.00,VWS V14.01,2013-06-16 18:13:00,
2013-06-16 13:14:00,80.3,69.6,29.91,NNE,22,6.0,10.0,70,0.00,,---,0.00,VWS V14.01,2013-06-16 18:14:00,
2013-06-16 13:15:00,80.3,68.8,29.90,NE,53,7.0,13.0,68,0.00,,---,0.00,VWS V14.01,2013-06-16 18:15:00,
2013-06-16 13:17:00,80.1,69.0,29.90,NE,49,11.0,13.0,69,0.00,,---,0.00,VWS V14.01,2013-06-16 18:17:00,
2013-06-16 13:18:00,79.9,68.4,29.90,NE,40,10.0,13.0,68,0.00,,---,0.00,VWS V14.01,2013-06-16 18:18:00,
2013-06-16 13:19:00,79.8,68.3,29.90,ENE,65,12.0,14.0,68,0.00,,---,0.00,VWS V14.01,2013-06-16 18:19:00,
2013-06-16 13:20:00,79.8,68.7,29.90,ENE,64,0.0,14.0,69,0.00,,---,0.00,VWS V14.01,2013-06-16 18:20:00,
2013-06-16 13:22:00,79.9,69.2,29.90,NE,41,3.0,10.0,70,0.00,,---,0.00,VWS V14.01,2013-06-16 18:22:00,
2013-06-16 13:23:00,80.1,69.0,29.90,NE,40,11.0,14.0,69,0.00,,---,0.00,VWS V14.01,2013-06-16 18:23:00,
2013-06-16 13:24:00,80.3,69.2,29.90,NE,51,10.0,14.0,69,0.00,,---,0.00,VWS V14.01,2013-06-16 18:24:00,
2013-06-16 13:25:00,80.3,68.8,29.90,NE,54,10.0,14.0,68,0.00,,---,0.00,VWS V14.01,2013-06-16 18:25:00,
2013-06-16 13:27:00,80.1,69.0,29.90,ENE,61,4.0,14.0,69,0.00,,---,0.00,VWS V14.01,2013-06-16 18:27:00,
2013-06-16 13:28:00,80.1,69.0,29.90,ENE,59,11.0,14.0,69,0.00,,---,0.00,VWS V14.01,2013-06-16 18:28:00,
2013-06-16 13:29:00,80.1,69.0,29.90,NE,51,5.0,15.0,69,0.00,,---,0.00,VWS V14.01,2013-06-16 18:29:00,
2013-06-16 13:30:00,80.1,69.0,29.90,ENE,57,7.0,15.0,69,0.00,,---,0.00,VWS V14.01,2013-06-16 18:30:00,
2013-06-16 13:32:00,80.1,69.0,29.90,ENE,58,7.0,14.0,69,0.00,,---,0.00,VWS V14.01,2013-06-16 18:32:00,
2013-06-16 13:33:00,80.1,69.0,29.90,NE,35,10.0,14.0,69,0.00,,---,0.00,VWS V14.01,2013-06-16 18:33:00,
2013-06-16 13:34:00,80.1,68.6,29.90,ENE,59,9.0,14.0,68,0.00,,---,0.00,VWS V14.01,2013-06-16 18:34:00,
2013-06-16 13:35:00,80.3,69.6,29.90,NE,54,7.0,14.0,70,0.00,,---,0.00,VWS V14.01,2013-06-16 18:35:00,
2013-06-16 13:37:00,80.3,69.6,29.90,ENE,74,7.0,14.0,70,0.00,,---,0.00,VWS V14.01,2013-06-16 18:37:00,
2013-06-16 13:38:00,80.3,69.6,29.90,NE,51,6.0,14.0,70,0.00,,---,0.00,VWS V14.01,2013-06-16 18:38:00,
2013-06-16 13:39:00,80.1,69.0,29.90,ENE,69,6.0,14.0,69,0.00,,---,0.00,VWS V14.01,2013-06-16 18:39:00,
2013-06-16 13:41:00,80.1,69.4,29.90,NE,53,14.0,14.0,70,0.00,,---,0.00,VWS V14.01,2013-06-16 18:41:00,
2013-06-16 13:42:00,80.3,69.2,29.90,NE,47,5.0,15.0,69,0.00,,---,0.00,VWS V14.01,2013-06-16 18:42:00,
2013-06-16 13:43:00,80.3,69.2,29.90,ENE,62,6.0,15.0,69,0.00,,---,0.00,VWS V14.01,2013-06-16 18:43:00,
2013-06-16 13:44:00,80.3,69.2,29.90,ENE,65,6.0,15.0,69,0.00,,---,0.00,VWS V14.01,2013-06-16 18:44:00,
2013-06-16 13:46:00,80.5,69.4,29.90,ENE,67,11.0,15.0,69,0.00,,---,0.00,VWS V14.01,2013-06-16 18:46:00,
2013-06-16 13:47:00,80.3,68.8,29.90,ENE,59,3.0,15.0,68,0.00,,---,0.00,VWS V14.01,2013-06-16 18:47:00,
2013-06-16 13:48:00,80.5,69.0,29.90,ENE,58,0.0,15.0,68,0.00,,---,0.00,VWS V14.01,2013-06-16 18:48:00,
2013-06-16 13:49:00,80.7,69.2,29.90,NNE,18,0.0,15.0,68,0.00,,---,0.00,VWS V14.01,2013-06-16 18:49:00,
2013-06-16 13:51:00,80.7,68.7,29.90,NE,42,4.0,15.0,67,0.00,,---,0.00,VWS V14.01,2013-06-16 18:51:00,
2013-06-16 13:53:00,81.1,69.1,29.90,ENE,67,9.0,12.0,67,0.00,,---,0.00,VWS V14.01,2013-06-16 18:53:00,
2013-06-16 13:54:00,80.9,68.5,29.90,East,86,5.0,14.0,66,0.00,,---,0.00,VWS V14.01,2013-06-16 18:54:00,
2013-06-16 13:55:00,80.7,68.3,29.90,East,87,4.0,14.0,66,0.00,,---,0.00,VWS V14.01,2013-06-16 18:55:00,
2013-06-16 13:56:00,80.9,68.9,29.90,ENE,64,6.0,14.0,67,0.00,,---,0.00,VWS V14.01,2013-06-16 18:56:00,
2013-06-16 13:58:00,80.9,69.4,29.90,ENE,76,7.0,14.0,68,0.00,,---,0.00,VWS V14.01,2013-06-16 18:58:00,
2013-06-16 13:59:00,81.4,70.3,29.90,ENE,61,5.0,15.0,69,0.00,,---,0.00,VWS V14.01,2013-06-16 18:59:00,
2013-06-16 14:00:00,81.4,69.4,29.90,NE,47,2.0,15.0,67,0.00,,---,0.00,VWS V14.01,2013-06-16 19:00:00,
2013-06-16 14:01:00,81.6,69.6,29.89,ENE,70,9.0,9.0,67,0.00,,---,0.00,VWS V14.01,2013-06-16 19:01:00,
2013-06-16 14:03:00,81.6,68.7,29.89,ENE,60,3.0,10.0,65,0.00,,---,0.00,VWS V14.01,2013-06-16 19:03:00,
2013-06-16 14:04:00,81.8,68.9,29.89,ENE,74,4.0,12.0,65,0.00,,---,0.00,VWS V14.01,2013-06-16 19:04:00,
2013-06-16 14:05:00,81.8,69.3,29.89,East,86,8.0,12.0,66,0.00,,---,0.00,VWS V14.01,2013-06-16 19:05:00,
2013-06-16 14:06:00,81.8,68.9,29.89,ENE,78,3.0,12.0,65,0.00,,---,0.00,VWS V14.01,2013-06-16 19:06:00,
2013-06-16 14:08:00,81.6,68.7,29.89,ENE,70,4.0,12.0,65,0.00,,---,0.00,VWS V14.01,2013-06-16 19:08:00,
2013-06-16 14:09:00,81.6,68.7,29.89,ENE,59,11.0,13.0,65,0.00,,---,0.00,VWS V14.01,2013-06-16 19:09:00,
2013-06-16 14:10:00,81.6,67.8,29.89,ENE,65,9.0,13.0,63,0.00,,---,0.00,VWS V14.01,2013-06-16 19:10:00,
2013-06-16 14:11:00,81.4,67.6,29.89,ENE,59,10.0,10.0,63,0.00,,---,0.00,VWS V14.01,2013-06-16 19:11:00,
2013-06-16 14:13:00,81.6,67.8,29.89,ENE,59,9.0,10.0,63,0.00,,---,0.00,VWS V14.01,2013-06-16 19:13:00,
2013-06-16 14:14:00,81.8,68.4,29.89,ENE,75,6.0,10.0,64,0.00,,---,0.00,VWS V14.01,2013-06-16 19:14:00,
2013-06-16 14:15:00,81.8,68.4,29.89,ENE,78,5.0,10.0,64,0.00,,---,0.00,VWS V14.01,2013-06-16 19:15:00,
2013-06-16 14:16:00,81.8,68.4,29.89,NE,45,10.0,11.0,64,0.00,,---,0.00,VWS V14.01,2013-06-16 19:16:00,
2013-06-16 14:18:00,81.8,68.4,29.89,ENE,58,11.0,12.0,64,0.00,,---,0.00,VWS V14.01,2013-06-16 19:18:00,
2013-06-16 14:19:00,81.8,68.4,29.89,NE,49,4.0,12.0,64,0.00,,---,0.00,VWS V14.01,2013-06-16 19:19:00,
2013-06-16 14:20:00,81.8,68.0,29.89,ENE,76,5.0,12.0,63,0.00,,---,0.00,VWS V14.01,2013-06-16 19:20:00,
2013-06-16 14:21:00,82.0,68.6,29.89,ENE,73,2.0,6.0,64,0.00,,---,0.00,VWS V14.01,2013-06-16 19:21:00,
2013-06-16 14:23:00,82.0,67.7,29.89,ENE,72,10.0,12.0,62,0.00,,---,0.00,VWS V14.01,2013-06-16 19:23:00,
2013-06-16 14:24:00,81.8,67.5,29.89,ENE,76,4.0,12.0,62,0.00,,---,0.00,VWS V14.01,2013-06-16 19:24:00,
2013-06-16 14:25:00,81.8,67.5,29.89,ENE,76,2.0,12.0,62,0.00,,---,0.00,VWS V14.01,2013-06-16 19:25:00,
2013-06-16 14:26:00,81.6,67.8,29.89,ENE,78,3.0,12.0,63,0.00,,---,0.00,VWS V14.01,2013-06-16 19:26:00,
2013-06-16 14:28:00,81.8,68.0,29.89,ENE,78,1.0,12.0,63,0.00,,---,0.00,VWS V14.01,2013-06-16 19:28:00,
2013-06-16 14:29:00,81.8,68.4,29.89,ENE,59,4.0,12.0,64,0.00,,---,0.00,VWS V14.01,2013-06-16 19:29:00,
2013-06-16 14:30:00,82.0,68.6,29.88,ENE,69,3.0,12.0,64,0.00,,---,0.00,VWS V14.01,2013-06-16 19:30:00,
2013-06-16 14:31:00,82.0,67.7,29.88,ENE,69,3.0,4.0,62,0.00,,---,0.00,VWS V14.01,2013-06-16 19:31:00,
2013-06-16 14:33:00,82.2,68.4,29.88,East,94,6.0,7.0,63,0.00,,---,0.00,VWS V14.01,2013-06-16 19:33:00,
2013-06-16 14:34:00,82.4,68.6,29.88,East,84,6.0,9.0,63,0.00,,---,0.00,VWS V14.01,2013-06-16 19:34:00,
2013-06-16 14:35:00,82.6,69.2,29.88,NNE,24,7.0,9.0,64,0.00,,---,0.00,VWS V14.01,2013-06-16 19:35:00,
2013-06-16 14:36:00,82.6,68.3,29.88,ENE,74,10.0,11.0,62,0.00,,---,0.00,VWS V14.01,2013-06-16 19:36:00,
2013-06-16 14:38:00,82.6,68.3,29.88,East,91,5.0,11.0,62,0.00,,---,0.00,VWS V14.01,2013-06-16 19:38:00,
2013-06-16 14:39:00,82.6,67.8,29.88,ESE,114,9.0,11.0,61,0.00,,---,0.00,VWS V14.01,2013-06-16 19:39:00,
2013-06-16 14:40:00,82.4,67.6,29.88,NE,56,5.0,11.0,61,0.00,,---,0.00,VWS V14.01,2013-06-16 19:40:00,
2013-06-16 14:41:00,82.4,68.1,29.88,East,98,9.0,10.0,62,0.00,,---,0.00,VWS V14.01,2013-06-16 19:41:00,
2013-06-16 14:43:00,82.4,68.1,29.88,East,94,5.0,10.0,62,0.00,,---,0.00,VWS V14.01,2013-06-16 19:43:00,
2013-06-16 14:44:00,82.4,68.1,29.88,East,87,7.0,10.0,62,0.00,,---,0.00,VWS V14.01,2013-06-16 19:44:00,
2013-06-16 14:45:00,82.4,68.1,29.89,ENE,59,6.0,10.0,62,0.00,,---,0.00,VWS V14.01,2013-06-16 19:45:00,
2013-06-16 14:46:00,82.4,68.6,29.89,NE,54,6.0,10.0,63,0.00,,---,0.00,VWS V14.01,2013-06-16 19:46:00,
2013-06-16 14:48:00,82.6,68.7,29.89,ESE,104,6.0,10.0,63,0.00,,---,0.00,VWS V14.01,2013-06-16 19:48:00,
2013-06-16 14:49:00,82.6,68.3,29.89,ESE,110,3.0,10.0,62,0.00,,---,0.00,VWS V14.01,2013-06-16 19:49:00,
2013-06-16 14:50:00,82.6,68.7,29.89,ENE,60,10.0,12.0,63,0.00,,---,0.00,VWS V14.01,2013-06-16 19:50:00,
2013-06-16 14:51:00,82.4,68.1,29.89,East,81,7.0,11.0,62,0.00,,---,0.00,VWS V14.01,2013-06-16 19:51:00,
2013-06-16 14:53:00,82.2,67.9,29.89,ENE,76,4.0,11.0,62,0.00,,---,0.00,VWS V14.01,2013-06-16 19:53:00,
2013-06-16 14:54:00,82.0,68.2,29.89,ENE,78,4.0,11.0,63,0.00,,---,0.00,VWS V14.01,2013-06-16 19:54:00,
2013-06-16 14:55:00,82.0,68.2,29.89,ENE,78,5.0,11.0,63,0.00,,---,0.00,VWS V14.01,2013-06-16 19:55:00,
2013-06-16 14:56:00,82.0,68.2,29.89,ENE,78,6.0,11.0,63,0.00,,---,0.00,VWS V14.01,2013-06-16 19:56:00,
2013-06-16 14:58:00,82.2,68.4,29.89,East,86,9.0,11.0,63,0.00,,---,0.00,VWS V14.01,2013-06-16 19:58:00,
2013-06-16 14:59:00,82.2,67.4,29.89,ESE,102,7.0,11.0,61,0.00,,---,0.00,VWS V14.01,2013-06-16 19:59:00,
2013-06-16 15:00:00,82.2,66.9,29.89,East,94,6.0,11.0,60,0.00,,---,0.00,VWS V14.01,2013-06-16 20:00:00,
2013-06-16 15:02:00,82.2,66.9,29.89,ESE,105,5.0,7.0,60,0.00,,---,0.00,VWS V14.01,2013-06-16 20:02:00,
2013-06-16 15:03:00,82.2,67.4,29.89,ESE,120,9.0,9.0,61,0.00,,---,0.00,VWS V14.01,2013-06-16 20:03:00,
2013-06-16 15:04:00,82.2,67.4,29.89,ESE,115,3.0,10.0,61,0.00,,---,0.00,VWS V14.01,2013-06-16 20:04:00,
2013-06-16 15:05:00,82.2,67.4,29.89,ESE,115,0.0,10.0,61,0.00,,---,0.00,VWS V14.01,2013-06-16 20:05:00,
2013-06-16 15:07:00,82.2,67.9,29.89,SE,134,4.0,10.0,62,0.00,,---,0.00,VWS V14.01,2013-06-16 20:07:00,
2013-06-16 15:08:00,82.2,67.9,29.89,SE,131,2.0,10.0,62,0.00,,---,0.00,VWS V14.01,2013-06-16 20:08:00,
2013-06-16 15:09:00,82.2,67.9,29.89,SE,131,3.0,10.0,62,0.00,,---,0.00,VWS V14.01,2013-06-16 20:09:00,
2013-06-16 15:10:00,82.4,68.1,29.89,SE,131,4.0,10.0,62,0.00,,---,0.00,VWS V14.01,2013-06-16 20:10:00,
2013-06-16 15:12:00,82.4,67.6,29.89,SE,131,0.0,3.0,61,0.00,,---,0.00,VWS V14.01,2013-06-16 20:12:00,
2013-06-16 15:13:00,82.6,67.3,29.89,ESE,122,5.0,5.0,60,0.00,,---,0.00,VWS V14.01,2013-06-16 20:13:00,
2013-06-16 15:15:00,83.0,68.2,29.88,ENE,74,6.0,7.0,61,0.00,,---,0.00,VWS V14.01,2013-06-16 20:15:00,
2013-06-16 15:17:00,82.8,68.0,29.88,ESE,105,7.0,11.0,61,0.00,,---,0.00,VWS V14.01,2013-06-16 20:17:00,
2013-06-16 15:18:00,82.6,67.8,29.88,East,90,5.0,11.0,61,0.00,,---,0.00,VWS V14.01,2013-06-16 20:18:00,
2013-06-16 15:20:00,82.4,67.6,29.88,East,90,4.0,11.0,61,0.00,,---,0.00,VWS V14.01,2013-06-16 20:20:00,
2013-06-16 15:22:00,82.4,68.1,29.88,ESE,111,5.0,8.0,62,0.00,,---,0.00,VWS V14.01,2013-06-16 20:22:00,
2013-06-16 15:23:00,82.2,67.9,29.88,ESE,114,4.0,10.0,62,0.00,,---,0.00,VWS V14.01,2013-06-16 20:23:00,
2013-06-16 15:25:00,82.2,67.9,29.88,ESE,113,4.0,10.0,62,0.00,,---,0.00,VWS V14.01,2013-06-16 20:25:00,
2013-06-16 15:27:00,82.4,68.1,29.88,ESE,113,2.0,10.0,62,0.00,,---,0.00,VWS V14.01,2013-06-16 20:27:00,
2013-06-16 15:28:00,82.4,68.6,29.88,East,95,4.0,10.0,63,0.00,,---,0.00,VWS V14.01,2013-06-16 20:28:00,
2013-06-16 15:30:00,82.4,69.0,29.88,East,98,5.0,10.0,64,0.00,,---,0.00,VWS V14.01,2013-06-16 20:30:00,
2013-06-16 15:32:00,82.6,68.7,29.88,East,98,4.0,5.0,63,0.00,,---,0.00,VWS V14.01,2013-06-16 20:32:00,
2013-06-16 15:33:00,82.8,68.5,29.88,East,89,5.0,6.0,62,0.00,,---,0.00,VWS V14.01,2013-06-16 20:33:00,
2013-06-16 15:35:00,83.0,68.2,29.88,East,86,5.0,6.0,61,0.00,,---,0.00,VWS V14.01,2013-06-16 20:35:00,
2013-06-16 15:37:00,83.0,68.2,29.88,East,82,3.0,6.0,61,0.00,,---,0.00,VWS V14.01,2013-06-16 20:37:00,
2013-06-16 15:38:00,82.8,68.5,29.88,East,84,4.0,6.0,62,0.00,,---,0.00,VWS V14.01,2013-06-16 20:38:00,
2013-06-16 15:40:00,82.8,68.5,29.88,East,88,5.0,6.0,62,0.00,,---,0.00,VWS V14.01,2013-06-16 20:40:00,
2013-06-16 15:41:00,82.6,68.3,29.88,East,88,6.0,6.0,62,0.00,,---,0.00,VWS V14.01,2013-06-16 20:41:00,
2013-06-16 15:42:00,82.6,68.3,29.88,East,90,7.0,9.0,62,0.00,,---,0.00,VWS V14.01,2013-06-16 20:42:00,
2013-06-16 15:43:00,82.8,68.5,29.88,East,91,5.0,9.0,62,0.00,,---,0.00,VWS V14.01,2013-06-16 20:43:00,
2013-06-16 15:45:00,82.8,68.5,29.88,East,98,6.0,9.0,62,0.00,,---,0.00,VWS V14.01,2013-06-16 20:45:00,
2013-06-16 15:46:00,83.0,68.7,29.88,East,98,3.0,9.0,62,0.00,,---,0.00,VWS V14.01,2013-06-16 20:46:00,
2013-06-16 15:47:00,82.8,68.0,29.88,East,98,1.0,9.0,61,0.00,,---,0.00,VWS V14.01,2013-06-16 20:47:00,
2013-06-16 15:48:00,82.8,68.0,29.88,East,99,5.0,9.0,61,0.00,,---,0.00,VWS V14.01,2013-06-16 20:48:00,
2013-06-16 15:50:00,83.0,68.2,29.88,SE,125,6.0,9.0,61,0.00,,---,0.00,VWS V14.01,2013-06-16 20:50:00,
2013-06-16 15:51:00,83.0,68.2,29.88,SE,125,5.0,5.0,61,0.00,,---,0.00,VWS V14.01,2013-06-16 20:51:00,
2013-06-16 15:52:00,83.0,67.7,29.88,SE,125,4.0,6.0,60,0.00,,---,0.00,VWS V14.01,2013-06-16 20:52:00,
2013-06-16 15:54:00,83.0,68.2,29.88,SE,125,0.0,6.0,61,0.00,,---,0.00,VWS V14.01,2013-06-16 20:54:00,
2013-06-16 15:56:00,83.0,68.2,29.88,ESE,123,4.0,6.0,61,0.00,,---,0.00,VWS V14.01,2013-06-16 20:56:00,
2013-06-16 15:57:00,83.0,68.2,29.88,ESE,113,1.0,6.0,61,0.00,,---,0.00,VWS V14.01,2013-06-16 20:57:00,
2013-06-16 15:59:00,83.2,68.4,29.88,ESE,113,6.0,7.0,61,0.00,,---,0.00,VWS V14.01,2013-06-16 20:59:00,
2013-06-16 16:01:00,83.2,67.4,29.88,ESE,109,2.0,2.0,59,0.00,,---,0.00,VWS V14.01,2013-06-16 21:01:00,
2013-06-16 16:02:00,83.4,68.1,29.88,ENE,70,8.0,10.0,60,0.00,,---,0.00,VWS V14.01,2013-06-16 21:02:00,
2013-06-16 16:04:00,83.8,68.0,29.88,East,98,6.0,10.0,59,0.00,,---,0.00,VWS V14.01,2013-06-16 21:04:00,
2013-06-16 16:06:00,83.6,67.8,29.88,ESE,113,10.0,11.0,59,0.00,,---,0.00,VWS V14.01,2013-06-16 21:06:00,
2013-06-16 16:07:00,83.4,67.6,29.88,ESE,113,3.0,11.0,59,0.00,,---,0.00,VWS V14.01,2013-06-16 21:07:00,
2013-06-16 16:09:00,83.4,67.6,29.88,ESE,113,2.0,11.0,59,0.00,,---,0.00,VWS V14.01,2013-06-16 21:09:00,
2013-06-16 16:11:00,83.4,67.6,29.88,ESE,113,2.0,4.0,59,0.00,,---,0.00,VWS V14.01,2013-06-16 21:11:00,
2013-06-16 16:12:00,83.6,68.3,29.88,ESE,102,0.0,5.0,60,0.00,,---,0.00,VWS V14.01,2013-06-16 21:12:00,
2013-06-16 16:14:00,83.8,68.0,29.88,ENE,76,2.0,7.0,59,0.00,,---,0.00,VWS V14.01,2013-06-16 21:14:00,
2013-06-16 16:16:00,83.8,68.4,29.87,ENE,76,2.0,7.0,60,0.00,,---,0.00,VWS V14.01,2013-06-16 21:16:00,
2013-06-16 16:17:00,84.0,68.1,29.87,East,98,6.0,7.0,59,0.00,,---,0.00,VWS V14.01,2013-06-16 21:17:00,
2013-06-16 16:19:00,83.8,67.5,29.87,East,101,6.0,7.0,58,0.00,,---,0.00,VWS V14.01,2013-06-16 21:19:00,
2013-06-16 16:21:00,83.8,67.5,29.87,East,101,3.0,3.0,58,0.00,,---,0.00,VWS V14.01,2013-06-16 21:21:00,
2013-06-16 16:22:00,83.6,66.8,29.87,East,101,0.0,3.0,57,0.00,,---,0.00,VWS V14.01,2013-06-16 21:22:00,
2013-06-16 16:24:00,83.8,66.4,29.87,East,101,0.0,3.0,56,0.00,,---,0.00,VWS V14.01,2013-06-16 21:24:00,
2013-06-16 16:26:00,84.0,67.1,29.87,East,101,0.0,5.0,57,0.00,,---,0.00,VWS V14.01,2013-06-16 21:26:00,
2013-06-16 16:27:00,84.0,67.1,29.87,East,101,0.0,5.0,57,0.00,,---,0.00,VWS V14.01,2013-06-16 21:27:00,
2013-06-16 16:29:00,84.1,67.2,29.87,East,98,3.0,5.0,57,0.00,,---,0.00,VWS V14.01,2013-06-16 21:29:00,
2013-06-16 16:31:00,84.1,67.2,29.87,East,90,4.0,5.0,57,0.00,,---,0.00,VWS V14.01,2013-06-16 21:31:00,
2013-06-16 16:32:00,84.3,66.9,29.87,East,90,4.0,5.0,56,0.00,,---,0.00,VWS V14.01,2013-06-16 21:32:00,
2013-06-16 16:34:00,84.5,67.6,29.87,East,85,6.0,9.0,57,0.00,,---,0.00,VWS V14.01,2013-06-16 21:34:00,
2013-06-16 16:36:00,84.3,66.4,29.87,East,85,2.0,9.0,55,0.00,,---,0.00,VWS V14.01,2013-06-16 21:36:00,
2013-06-16 16:38:00,84.1,66.2,29.87,East,88,5.0,9.0,55,0.00,,---,0.00,VWS V14.01,2013-06-16 21:38:00,
2013-06-16 16:39:00,84.0,66.6,29.87,East,88,0.0,9.0,56,0.00,,---,0.00,VWS V14.01,2013-06-16 21:39:00,
2013-06-16 16:41:00,84.1,67.2,29.87,East,88,2.0,3.0,57,0.00,,---,0.00,VWS V14.01,2013-06-16 21:41:00,
2013-06-16 16:43:00,84.1,67.2,29.87,ESE,103,7.0,9.0,57,0.00,,---,0.00,VWS V14.01,2013-06-16 21:43:00,
2013-06-16 16:45:00,84.1,66.2,29.87,ESE,109,5.0,9.0,55,0.00,,---,0.00,VWS V14.01,2013-06-16 21:45:00,
2013-06-16 16:46:00,84.1,66.2,29.86,ESE,108,3.0,9.0,55,0.00,,---,0.00,VWS V14.01,2013-06-16 21:46:00,
2013-06-16 16:48:00,84.3,66.4,29.86,ESE,108,1.0,9.0,55,0.00,,---,0.00,VWS V14.01,2013-06-16 21:48:00,
2013-06-16 16:50:00,84.5,66.6,29.86,ESE,108,0.0,9.0,55,0.00,,---,0.00,VWS V14.01,2013-06-16 21:50:00,
2013-06-16 16:51:00,84.5,67.6,29.86,ESE,103,4.0,6.0,57,0.00,,---,0.00,VWS V14.01,2013-06-16 21:51:00,
2013-06-16 16:53:00,84.5,67.6,29.86,East,98,3.0,6.0,57,0.00,,---,0.00,VWS V14.01,2013-06-16 21:53:00,
2013-06-16 16:55:00,84.5,67.6,29.86,East,90,3.0,6.0,57,0.00,,---,0.00,VWS V14.01,2013-06-16 21:55:00,
2013-06-16 16:56:00,84.7,67.8,29.86,ENE,66,3.0,6.0,57,0.00,,---,0.00,VWS V14.01,2013-06-16 21:56:00,
2013-06-16 16:57:00,84.7,67.8,29.86,ENE,65,3.0,6.0,57,0.00,,---,0.00,VWS V14.01,2013-06-16 21:57:00,
2013-06-16 16:58:00,84.7,67.3,29.86,NE,56,5.0,9.0,56,0.00,,---,0.00,VWS V14.01,2013-06-16 21:58:00,
2013-06-16 17:00:00,84.5,66.6,29.86,NE,43,6.0,9.0,55,0.00,,---,0.00,VWS V14.01,2013-06-16 22:00:00,
2013-06-16 17:01:00,84.3,66.9,29.86,NE,46,6.0,6.0,56,0.00,,---,0.00,VWS V14.01,2013-06-16 22:01:00,
2013-06-16 17:02:00,84.3,66.9,29.86,NE,46,3.0,6.0,56,0.00,,---,0.00,VWS V14.01,2013-06-16 22:02:00,
2013-06-16 17:03:00,84.1,67.2,29.86,NE,46,0.0,6.0,57,0.00,,---,0.00,VWS V14.01,2013-06-16 22:03:00,
2013-06-16 17:05:00,84.1,66.7,29.86,NE,46,0.0,6.0,56,0.00,,---,0.00,VWS V14.01,2013-06-16 22:05:00,
2013-06-16 17:06:00,84.0,66.6,29.86,NE,46,0.0,6.0,56,0.00,,---,0.00,VWS V14.01,2013-06-16 22:06:00,
2013-06-16 17:07:00,84.0,66.6,29.86,NE,46,0.0,6.0,56,0.00,,---,0.00,VWS V14.01,2013-06-16 22:07:00,
2013-06-16 17:08:00,84.0,66.6,29.86,NE,46,0.0,6.0,56,0.00,,---,0.00,VWS V14.01,2013-06-16 22:08:00,
2013-06-16 17:10:00,84.1,66.7,29.86,NE,47,3.0,6.0,56,0.00,,---,0.00,VWS V14.01,2013-06-16 22:10:00,
2013-06-16 17:11:00,84.3,66.9,29.86,NE,53,6.0,7.0,56,0.00,,---,0.00,VWS V14.01,2013-06-16 22:11:00,
2013-06-16 17:12:00,84.3,66.9,29.86,ENE,63,5.0,7.0,56,0.00,,---,0.00,VWS V14.01,2013-06-16 22:12:00,
2013-06-16 17:13:00,84.5,67.6,29.86,NE,49,5.0,10.0,57,0.00,,---,0.00,VWS V14.01,2013-06-16 22:13:00,
2013-06-16 17:15:00,84.5,66.6,29.86,NE,51,5.0,11.0,55,0.00,,---,0.00,VWS V14.01,2013-06-16 22:15:00,
2013-06-16 17:16:00,84.3,66.9,29.86,NE,51,4.0,11.0,56,0.00,,---,0.00,VWS V14.01,2013-06-16 22:16:00,
2013-06-16 17:17:00,84.3,67.4,29.86,NE,51,5.0,11.0,57,0.00,,---,0.00,VWS V14.01,2013-06-16 22:17:00,
2013-06-16 17:18:00,84.3,67.4,29.86,NE,52,5.0,11.0,57,0.00,,---,0.00,VWS V14.01,2013-06-16 22:18:00,
2013-06-16 17:20:00,84.3,66.9,29.86,ENE,60,5.0,11.0,56,0.00,,---,0.00,VWS V14.01,2013-06-16 22:20:00,
2013-06-16 17:21:00,84.3,66.9,29.86,ENE,61,4.0,5.0,56,0.00,,---,0.00,VWS V14.01,2013-06-16 22:21:00,
2013-06-16 17:22:00,84.3,67.4,29.86,ENE,61,5.0,6.0,57,0.00,,---,0.00,VWS V14.01,2013-06-16 22:22:00,
2013-06-16 17:23:00,84.3,66.9,29.86,ENE,63,5.0,9.0,56,0.00,,---,0.00,VWS V14.01,2013-06-16 22:23:00,
2013-06-16 17:25:00,84.3,66.4,29.86,East,82,4.0,10.0,55,0.00,,---,0.00,VWS V14.01,2013-06-16 22:25:00,
2013-06-16 17:27:00,84.3,66.9,29.86,East,88,6.0,10.0,56,0.00,,---,0.00,VWS V14.01,2013-06-16 22:27:00,
2013-06-16 17:28:00,84.5,67.1,29.86,East,80,10.0,11.0,56,0.00,,---,0.00,VWS V14.01,2013-06-16 22:28:00,
2013-06-16 17:30:00,84.5,67.6,29.84,ENE,71,7.0,11.0,57,0.00,,---,0.00,VWS V14.01,2013-06-16 22:30:00,
2013-06-16 17:32:00,84.7,67.3,29.84,East,79,6.0,9.0,56,0.00,,---,0.00,VWS V14.01,2013-06-16 22:32:00,
2013-06-16 17:33:00,84.5,67.1,29.84,East,87,6.0,10.0,56,0.00,,---,0.00,VWS V14.01,2013-06-16 22:33:00,
2013-06-16 17:35:00,84.5,67.1,29.84,ENE,78,6.0,10.0,56,0.00,,---,0.00,VWS V14.01,2013-06-16 22:35:00,
2013-06-16 17:37:00,84.7,68.3,29.84,NE,40,10.0,11.0,58,0.00,,---,0.00,VWS V14.01,2013-06-16 22:37:00,
2013-06-16 17:38:00,84.5,67.6,29.84,NE,49,7.0,12.0,57,0.00,,---,0.00,VWS V14.01,2013-06-16 22:38:00,
2013-06-16 17:40:00,84.5,67.6,29.84,East,80,7.0,12.0,57,0.00,,---,0.00,VWS V14.01,2013-06-16 22:40:00,
2013-06-16 17:42:00,84.5,67.6,29.84,ENE,77,6.0,9.0,57,0.00,,---,0.00,VWS V14.01,2013-06-16 22:42:00,
2013-06-16 17:43:00,84.5,67.6,29.84,East,100,5.0,10.0,57,0.00,,---,0.00,VWS V14.01,2013-06-16 22:43:00,
2013-06-16 17:45:00,84.5,67.6,29.84,ENE,65,6.0,12.0,57,0.00,,---,0.00,VWS V14.01,2013-06-16 22:45:00,
2013-06-16 17:47:00,84.3,67.9,29.84,ENE,65,9.0,12.0,58,0.00,,---,0.00,VWS V14.01,2013-06-16 22:47:00,
2013-06-16 17:48:00,84.3,67.4,29.84,NE,53,10.0,13.0,57,0.00,,---,0.00,VWS V14.01,2013-06-16 22:48:00,
2013-06-16 17:50:00,84.3,67.4,29.84,NE,55,10.0,13.0,57,0.00,,---,0.00,VWS V14.01,2013-06-16 22:50:00,
2013-06-16 17:52:00,84.1,67.7,29.84,ENE,65,11.0,11.0,58,0.00,,---,0.00,VWS V14.01,2013-06-16 22:52:00,
2013-06-16 17:53:00,84.3,68.4,29.84,East,79,9.0,13.0,59,0.00,,---,0.00,VWS V14.01,2013-06-16 22:53:00,
2013-06-16 17:55:00,84.1,68.2,29.84,ENE,61,15.0,15.0,59,0.00,,---,0.00,VWS V14.01,2013-06-16 22:55:00,
2013-06-16 17:57:00,84.0,67.7,29.84,ENE,71,9.0,17.0,58,0.00,,---,0.00,VWS V14.01,2013-06-16 22:57:00,
2013-06-16 17:59:00,83.8,68.0,29.84,ENE,76,11.0,17.0,59,0.00,,---,0.00,VWS V14.01,2013-06-16 22:59:00,
2013-06-16 18:00:00,83.6,68.3,29.83,ENE,72,11.0,17.0,60,0.00,,---,0.00,VWS V14.01,2013-06-16 23:00:00,
2013-06-16 18:02:00,83.4,68.1,29.83,NE,55,15.0,15.0,60,0.00,,---,0.00,VWS V14.01,2013-06-16 23:02:00,
2013-06-16 18:04:00,83.4,68.1,29.83,ENE,74,8.0,17.0,60,0.00,,---,0.00,VWS V14.01,2013-06-16 23:04:00,
2013-06-16 18:05:00,83.4,68.6,29.83,ENE,70,11.0,17.0,61,0.00,,---,0.00,VWS V14.01,2013-06-16 23:05:00,
2013-06-16 18:07:00,83.4,68.6,29.83,ENE,65,12.0,17.0,61,0.00,,---,0.00,VWS V14.01,2013-06-16 23:07:00,
2013-06-16 18:09:00,83.4,67.6,29.83,ENE,74,13.0,17.0,59,0.00,,---,0.00,VWS V14.01,2013-06-16 23:09:00,
2013-06-16 18:10:00,83.2,68.4,29.83,NE,40,14.0,17.0,61,0.00,,---,0.00,VWS V14.01,2013-06-16 23:10:00,
2013-06-16 18:12:00,83.2,67.9,29.83,ENE,73,13.0,16.0,60,0.00,,---,0.00,VWS V14.01,2013-06-16 23:12:00,
2013-06-16 18:14:00,83.0,67.7,29.83,ENE,77,9.0,16.0,60,0.00,,---,0.00,VWS V14.01,2013-06-16 23:14:00,
2013-06-16 18:16:00,82.8,68.0,29.83,ENE,63,12.0,16.0,61,0.00,,---,0.00,VWS V14.01,2013-06-16 23:16:00,
2013-06-16 18:17:00,82.8,68.0,29.83,ENE,71,9.0,16.0,61,0.00,,---,0.00,VWS V14.01,2013-06-16 23:17:00,
2013-06-16 18:18:00,82.8,68.0,29.83,ENE,63,15.0,16.0,61,0.00,,---,0.00,VWS V14.01,2013-06-16 23:18:00,
2013-06-16 18:19:00,82.8,68.0,29.83,ENE,69,12.0,16.0,61,0.00,,---,0.00,VWS V14.01,2013-06-16 23:19:00,
2013-06-16 18:21:00,82.6,68.3,29.83,ENE,72,6.0,11.0,62,0.00,,---,0.00,VWS V14.01,2013-06-16 23:21:00,
2013-06-16 18:22:00,82.6,68.3,29.83,East,81,7.0,14.0,62,0.00,,---,0.00,VWS V14.01,2013-06-16 23:22:00,
2013-06-16 18:23:00,82.6,68.3,29.83,ENE,59,9.0,14.0,62,0.00,,---,0.00,VWS V14.01,2013-06-16 23:23:00,
2013-06-16 18:24:00,82.6,68.3,29.83,NE,41,13.0,14.0,62,0.00,,---,0.00,VWS V14.01,2013-06-16 23:24:00,
2013-06-16 18:26:00,82.6,67.8,29.83,ENE,59,12.0,15.0,61,0.00,,---,0.00,VWS V14.01,2013-06-16 23:26:00,
2013-06-16 18:27:00,82.6,68.3,29.83,ENE,67,11.0,15.0,62,0.00,,---,0.00,VWS V14.01,2013-06-16 23:27:00,
2013-06-16 18:28:00,82.6,68.3,29.83,ENE,63,13.0,15.0,62,0.00,,---,0.00,VWS V14.01,2013-06-16 23:28:00,
2013-06-16 18:29:00,82.6,67.8,29.83,ENE,77,9.0,15.0,61,0.00,,---,0.00,VWS V14.01,2013-06-16 23:29:00,
2013-06-16 18:31:00,82.6,67.8,29.83,ENE,59,14.0,16.0,61,0.00,,---,0.00,VWS V14.01,2013-06-16 23:31:00,
2013-06-16 18:32:00,82.4,67.6,29.83,NE,55,12.0,16.0,61,0.00,,---,0.00,VWS V14.01,2013-06-16 23:32:00,
2013-06-16 18:33:00,82.4,67.6,29.83,ENE,60,10.0,16.0,61,0.00,,---,0.00,VWS V14.01,2013-06-16 23:33:00,
2013-06-16 18:34:00,82.4,68.1,29.83,ENE,64,12.0,16.0,62,0.00,,---,0.00,VWS V14.01,2013-06-16 23:34:00,
2013-06-16 18:36:00,82.6,67.8,29.83,NE,53,13.0,16.0,61,0.00,,---,0.00,VWS V14.01,2013-06-16 23:36:00,
2013-06-16 18:37:00,82.4,67.6,29.83,East,82,10.0,16.0,61,0.00,,---,0.00,VWS V14.01,2013-06-16 23:37:00,
2013-06-16 18:38:00,82.4,67.6,29.83,East,93,10.0,16.0,61,0.00,,---,0.00,VWS V14.01,2013-06-16 23:38:00,
2013-06-16 18:39:00,82.4,67.6,29.83,ENE,65,12.0,16.0,61,0.00,,---,0.00,VWS V14.01,2013-06-16 23:39:00,
2013-06-16 18:41:00,82.4,67.6,29.83,East,86,7.0,10.0,61,0.00,,---,0.00,VWS V14.01,2013-06-16 23:41:00,
2013-06-16 18:42:00,82.4,68.1,29.83,ENE,78,9.0,10.0,62,0.00,,---,0.00,VWS V14.01,2013-06-16 23:42:00,
2013-06-16 18:43:00,82.4,68.1,29.83,NE,55,9.0,10.0,62,0.00,,---,0.00,VWS V14.01,2013-06-16 23:43:00,
2013-06-16 18:44:00,82.4,68.1,29.83,ENE,78,9.0,12.0,62,0.00,,---,0.00,VWS V14.01,2013-06-16 23:44:00,
2013-06-16 18:46:00,82.4,68.1,29.84,ENE,74,11.0,13.0,62,0.00,,---,0.00,VWS V14.01,2013-06-16 23:46:00,
2013-06-16 18:47:00,82.4,68.1,29.84,ENE,74,12.0,13.0,62,0.00,,---,0.00,VWS V14.01,2013-06-16 23:47:00,
2013-06-16 18:48:00,82.4,67.6,29.84,East,94,10.0,15.0,61,0.00,,---,0.00,VWS V14.01,2013-06-16 23:48:00,
2013-06-16 18:49:00,82.2,67.9,29.84,ENE,67,11.0,15.0,62,0.00,,---,0.00,VWS V14.01,2013-06-16 23:49:00,
2013-06-16 18:51:00,82.2,67.9,29.84,ENE,73,13.0,13.0,62,0.00,,---,0.00,VWS V14.01,2013-06-16 23:51:00,
2013-06-16 18:53:00,82.0,67.7,29.84,East,81,10.0,13.0,62,0.00,,---,0.00,VWS V14.01,2013-06-16 23:53:00,
2013-06-16 18:54:00,81.8,68.0,29.84,ENE,71,9.0,14.0,63,0.00,,---,0.00,VWS V14.01,2013-06-16 23:54:00,
2013-06-16 18:56:00,81.8,68.0,29.84,East,89,11.0,14.0,63,0.00,,---,0.00,VWS V14.01,2013-06-16 23:56:00,
2013-06-16 18:58:00,81.6,67.3,29.84,East,91,11.0,14.0,62,0.00,,---,0.00,VWS V14.01,2013-06-16 23:58:00,
2013-06-16 18:59:00,81.4,67.6,29.84,East,96,9.0,14.0,63,0.00,,---,0.00,VWS V14.01,2013-06-16 23:59:00,
2013-06-16 19:01:00,81.4,68.1,29.83,East,83,9.0,11.0,64,0.00,,---,0.00,VWS V14.01,2013-06-17 00:01:00,
2013-06-16 19:03:00,81.4,68.1,29.83,East,80,6.0,13.0,64,0.00,,---,0.00,VWS V14.01,2013-06-17 00:03:00,
2013-06-16 19:04:00,81.4,68.1,29.83,ESE,104,11.0,13.0,64,0.00,,---,0.00,VWS V14.01,2013-06-17 00:04:00,
2013-06-16 19:06:00,81.2,67.9,29.83,ENE,63,8.0,13.0,64,0.00,,---,0.00,VWS V14.01,2013-06-17 00:06:00,
2013-06-16 19:08:00,81.4,67.6,29.83,East,82,9.0,13.0,63,0.00,,---,0.00,VWS V14.01,2013-06-17 00:08:00,
2013-06-16 19:09:00,81.2,67.9,29.83,East,88,12.0,14.0,64,0.00,,---,0.00,VWS V14.01,2013-06-17 00:09:00,
2013-06-16 19:11:00,81.1,67.8,29.83,East,82,9.0,12.0,64,0.00,,---,0.00,VWS V14.01,2013-06-17 00:11:00,
2013-06-16 19:13:00,81.1,67.8,29.83,ENE,61,10.0,13.0,64,0.00,,---,0.00,VWS V14.01,2013-06-17 00:13:00,
2013-06-16 19:14:00,81.1,67.8,29.83,ENE,64,13.0,13.0,64,0.00,,---,0.00,VWS V14.01,2013-06-17 00:14:00,
2013-06-16 19:16:00,81.1,68.2,29.83,ENE,69,9.0,13.0,65,0.00,,---,0.00,VWS V14.01,2013-06-17 00:16:00,
2013-06-16 19:18:00,80.9,67.6,29.83,East,82,10.0,13.0,64,0.00,,---,0.00,VWS V14.01,2013-06-17 00:18:00,
2013-06-16 19:20:00,80.9,68.0,29.83,ENE,69,12.0,14.0,65,0.00,,---,0.00,VWS V14.01,2013-06-17 00:20:00,
2013-06-16 19:21:00,80.9,67.6,29.83,ENE,64,11.0,17.0,64,0.00,,---,0.00,VWS V14.01,2013-06-17 00:21:00,
2013-06-16 19:23:00,80.7,67.8,29.83,ENE,69,12.0,17.0,65,0.00,,---,0.00,VWS V14.01,2013-06-17 00:23:00,
2013-06-16 19:25:00,80.7,67.4,29.83,ENE,77,9.0,17.0,64,0.00,,---,0.00,VWS V14.01,2013-06-17 00:25:00,
2013-06-16 19:26:00,80.7,67.8,29.83,NE,55,7.0,17.0,65,0.00,,---,0.00,VWS V14.01,2013-06-17 00:26:00,
2013-06-16 19:28:00,80.7,67.8,29.83,ENE,57,10.0,17.0,65,0.00,,---,0.00,VWS V14.01,2013-06-17 00:28:00,
2013-06-16 19:29:00,80.7,67.8,29.83,ENE,70,9.0,17.0,65,0.00,,---,0.00,VWS V14.01,2013-06-17 00:29:00,
2013-06-16 19:30:00,80.7,67.8,29.84,NE,41,10.0,17.0,65,0.00,,---,0.00,VWS V14.01,2013-06-17 00:30:00,
2013-06-16 19:31:00,80.5,67.7,29.84,NNE,25,12.0,13.0,65,0.00,,---,0.00,VWS V14.01,2013-06-17 00:31:00,
2013-06-16 19:33:00,80.5,67.2,29.84,NE,55,6.0,15.0,64,0.00,,---,0.00,VWS V14.01,2013-06-17 00:33:00,
2013-06-16 19:34:00,80.5,67.2,29.84,NE,55,10.0,15.0,64,0.00,,---,0.00,VWS V14.01,2013-06-17 00:34:00,
2013-06-16 19:35:00,80.3,67.0,29.84,ENE,73,12.0,15.0,64,0.00,,---,0.00,VWS V14.01,2013-06-17 00:35:00,
2013-06-16 19:36:00,80.3,67.0,29.84,ENE,71,12.0,15.0,64,0.00,,---,0.00,VWS V14.01,2013-06-17 00:36:00,
2013-06-16 19:38:00,80.3,67.5,29.84,ENE,70,10.0,15.0,65,0.00,,---,0.00,VWS V14.01,2013-06-17 00:38:00,
2013-06-16 19:39:00,80.3,67.5,29.84,ENE,61,7.0,15.0,65,0.00,,---,0.00,VWS V14.01,2013-06-17 00:39:00,
2013-06-16 19:40:00,80.3,67.5,29.84,ENE,61,12.0,15.0,65,0.00,,---,0.00,VWS V14.01,2013-06-17 00:40:00,
2013-06-16 19:41:00,80.3,67.5,29.84,ENE,75,8.0,10.0,65,0.00,,---,0.00,VWS V14.01,2013-06-17 00:41:00,
2013-06-16 19:43:00,80.3,67.9,29.84,ENE,61,6.0,10.0,66,0.00,,---,0.00,VWS V14.01,2013-06-17 00:43:00,
2013-06-16 19:44:00,80.1,67.7,29.84,NE,49,9.0,11.0,66,0.00,,---,0.00,VWS V14.01,2013-06-17 00:44:00,
2013-06-16 19:45:00,80.1,67.7,29.84,NE,46,10.0,11.0,66,0.00,,---,0.00,VWS V14.01,2013-06-17 00:45:00,
2013-06-16 19:46:00,79.9,67.1,29.84,ENE,57,14.0,15.0,65,0.00,,---,0.00,VWS V14.01,2013-06-17 00:46:00,
2013-06-16 19:48:00,79.9,67.1,29.84,ENE,59,13.0,15.0,65,0.00,,---,0.00,VWS V14.01,2013-06-17 00:48:00,
2013-06-16 19:49:00,79.9,67.1,29.84,ENE,73,15.0,15.0,65,0.00,,---,0.00,VWS V14.01,2013-06-17 00:49:00,
2013-06-16 19:50:00,79.9,67.5,29.84,ENE,59,9.0,15.0,66,0.00,,---,0.00,VWS V14.01,2013-06-17 00:50:00,
2013-06-16 19:52:00,79.9,67.5,29.84,ENE,70,10.0,11.0,66,0.00,,---,0.00,VWS V14.01,2013-06-17 00:52:00,
2013-06-16 19:53:00,79.8,67.4,29.84,NE,52,9.0,14.0,66,0.00,,---,0.00,VWS V14.01,2013-06-17 00:53:00,
2013-06-16 19:54:00,79.8,67.9,29.84,ENE,58,7.0,14.0,67,0.00,,---,0.00,VWS V14.01,2013-06-17 00:54:00,
2013-06-16 19:55:00,79.8,67.9,29.84,NE,53,6.0,14.0,67,0.00,,---,0.00,VWS V14.01,2013-06-17 00:55:00,
2013-06-16 19:57:00,79.6,67.2,29.84,ENE,60,6.0,14.0,66,0.00,,---,0.00,VWS V14.01,2013-06-17 00:57:00,
2013-06-16 19:58:00,79.6,67.7,29.84,ENE,67,8.0,14.0,67,0.00,,---,0.00,VWS V14.01,2013-06-17 00:58:00,
2013-06-16 19:59:00,79.4,67.5,29.84,ENE,61,7.0,14.0,67,0.00,,---,0.00,VWS V14.01,2013-06-17 00:59:00,
2013-06-16 20:01:00,79.4,67.5,29.86,NE,56,6.0,9.0,67,0.00,,---,0.00,VWS V14.01,2013-06-17 01:01:00,
2013-06-16 20:02:00,79.4,67.5,29.86,ENE,61,6.0,9.0,67,0.00,,---,0.00,VWS V14.01,2013-06-17 01:02:00,
2013-06-16 20:03:00,79.4,67.5,29.86,ENE,65,7.0,9.0,67,0.00,,---,0.00,VWS V14.01,2013-06-17 01:03:00,
2013-06-16 20:04:00,79.2,67.7,29.86,ENE,61,10.0,10.0,68,0.00,,---,0.00,VWS V14.01,2013-06-17 01:04:00,
2013-06-16 20:06:00,79.2,67.7,29.86,ENE,58,7.0,10.0,68,0.00,,---,0.00,VWS V14.01,2013-06-17 01:06:00,
2013-06-16 20:07:00,79.2,67.7,29.86,NE,53,7.0,10.0,68,0.00,,---,0.00,VWS V14.01,2013-06-17 01:07:00,
2013-06-16 20:09:00,79.0,67.6,29.86,NE,48,9.0,11.0,68,0.00,,---,0.00,VWS V14.01,2013-06-17 01:09:00,
2013-06-16 20:11:00,79.0,67.6,29.86,ENE,59,10.0,10.0,68,0.00,,---,0.00,VWS V14.01,2013-06-17 01:11:00,
2013-06-16 20:12:00,79.0,67.6,29.86,ENE,64,7.0,11.0,68,0.00,,---,0.00,VWS V14.01,2013-06-17 01:12:00,
2013-06-16 20:14:00,78.8,67.4,29.86,ENE,61,11.0,11.0,68,0.00,,---,0.00,VWS V14.01,2013-06-17 01:14:00,
2013-06-16 20:16:00,78.8,67.4,29.87,NE,52,7.0,12.0,68,0.00,,---,0.00,VWS V14.01,2013-06-17 01:16:00,
2013-06-16 20:17:00,78.8,67.4,29.87,ENE,58,9.0,12.0,68,0.00,,---,0.00,VWS V14.01,2013-06-17 01:17:00,
2013-06-16 20:19:00,78.6,67.2,29.87,NE,52,10.0,12.0,68,0.00,,---,0.00,VWS V14.01,2013-06-17 01:19:00,
2013-06-16 20:21:00,78.6,67.2,29.87,ENE,60,11.0,12.0,68,0.00,,---,0.00,VWS V14.01,2013-06-17 01:21:00,
2013-06-16 20:22:00,78.6,67.2,29.87,NE,53,5.0,12.0,68,0.00,,---,0.00,VWS V14.01,2013-06-17 01:22:00,
2013-06-16 20:24:00,78.6,67.2,29.87,NE,48,4.0,12.0,68,0.00,,---,0.00,VWS V14.01,2013-06-17 01:24:00,
2013-06-16 20:26:00,78.5,67.1,29.87,NE,55,6.0,12.0,68,0.00,,---,0.00,VWS V14.01,2013-06-17 01:26:00,
2013-06-16 20:27:00,78.5,67.1,29.87,NE,54,8.0,12.0,68,0.00,,---,0.00,VWS V14.01,2013-06-17 01:27:00,
2013-06-16 20:29:00,78.3,67.3,29.87,NE,53,10.0,12.0,69,0.00,,---,0.00,VWS V14.01,2013-06-17 01:29:00,
2013-06-16 20:30:00,78.3,67.3,29.87,NE,48,5.0,12.0,69,0.00,,---,0.00,VWS V14.01,2013-06-17 01:30:00,
2013-06-16 20:31:00,78.1,67.1,29.87,NE,55,10.0,11.0,69,0.00,,---,0.00,VWS V14.01,2013-06-17 01:31:00,
2013-06-16 20:32:00,78.1,67.1,29.87,NE,46,6.0,11.0,69,0.00,,---,0.00,VWS V14.01,2013-06-17 01:32:00,
2013-06-16 20:34:00,77.9,67.3,29.87,ENE,65,7.0,12.0,70,0.00,,---,0.00,VWS V14.01,2013-06-17 01:34:00,
2013-06-16 20:35:00,77.9,67.3,29.87,NE,48,10.0,12.0,70,0.00,,---,0.00,VWS V14.01,2013-06-17 01:35:00,
2013-06-16 20:36:00,77.9,67.3,29.87,ENE,60,10.0,12.0,70,0.00,,---,0.00,VWS V14.01,2013-06-17 01:36:00,
2013-06-16 20:37:00,77.9,67.3,29.87,NE,49,10.0,12.0,70,0.00,,---,0.00,VWS V14.01,2013-06-17 01:37:00,
2013-06-16 20:39:00,77.7,67.1,29.87,NE,52,6.0,12.0,70,0.00,,---,0.00,VWS V14.01,2013-06-17 01:39:00,
2013-06-16 20:40:00,77.7,67.1,29.87,NE,53,7.0,12.0,70,0.00,,---,0.00,VWS V14.01,2013-06-17 01:40:00,
2013-06-16 20:41:00,77.6,67.1,29.87,NE,51,7.0,10.0,70,0.00,,---,0.00,VWS V14.01,2013-06-17 01:41:00,
2013-06-16 20:42:00,77.6,67.5,29.87,ENE,57,9.0,10.0,71,0.00,,---,0.00,VWS V14.01,2013-06-17 01:42:00,
2013-06-16 20:44:00,77.6,67.5,29.87,NE,50,8.0,10.0,71,0.00,,---,0.00,VWS V14.01,2013-06-17 01:44:00,
2013-06-16 20:45:00,77.4,67.3,29.87,ENE,57,10.0,10.0,71,0.00,,---,0.00,VWS V14.01,2013-06-17 01:45:00,
2013-06-16 20:46:00,77.4,67.3,29.87,NE,49,7.0,11.0,71,0.00,,---,0.00,VWS V14.01,2013-06-17 01:46:00,
2013-06-16 20:47:00,77.4,67.3,29.87,ENE,69,10.0,11.0,71,0.00,,---,0.00,VWS V14.01,2013-06-17 01:47:00,
2013-06-16 20:49:00,77.2,67.5,29.87,ENE,59,9.0,12.0,72,0.00,,---,0.00,VWS V14.01,2013-06-17 01:49:00,
2013-06-16 20:50:00,77.2,67.5,29.87,NE,47,7.0,12.0,72,0.00,,---,0.00,VWS V14.01,2013-06-17 01:50:00,
2013-06-16 20:51:00,77.2,67.5,29.87,NE,48,7.0,9.0,72,0.00,,---,0.00,VWS V14.01,2013-06-17 01:51:00,
2013-06-16 20:52:00,77.2,67.5,29.87,NE,49,7.0,10.0,72,0.00,,---,0.00,VWS V14.01,2013-06-17 01:52:00,
2013-06-16 20:54:00,77.0,67.3,29.87,NE,51,9.0,10.0,72,0.00,,---,0.00,VWS V14.01,2013-06-17 01:54:00,
2013-06-16 20:55:00,77.0,67.3,29.87,NE,51,6.0,10.0,72,0.00,,---,0.00,VWS V14.01,2013-06-17 01:55:00,
2013-06-16 20:57:00,76.8,67.1,29.87,NE,53,9.0,10.0,72,0.00,,---,0.00,VWS V14.01,2013-06-17 01:57:00,
2013-06-16 20:59:00,76.8,67.5,29.87,NE,48,6.0,10.0,73,0.00,,---,0.00,VWS V14.01,2013-06-17 01:59:00,
2013-06-16 21:00:00,76.8,67.5,29.88,NE,48,5.0,10.0,73,0.00,,---,0.00,VWS V14.01,2013-06-17 02:00:00,
2013-06-16 21:02:00,76.8,67.5,29.88,NE,48,5.0,7.0,73,0.00,,---,0.00,VWS V14.01,2013-06-17 02:02:00,
2013-06-16 21:05:00,76.7,67.4,29.88,NE,54,9.0,10.0,73,0.00,,---,0.00,VWS V14.01,2013-06-17 02:05:00,
2013-06-16 21:07:00,76.7,67.4,29.88,NE,48,0.0,10.0,73,0.00,,---,0.00,VWS V14.01,2013-06-17 02:07:00,
2013-06-16 21:10:00,76.7,67.4,29.88,NE,53,2.0,10.0,73,0.00,,---,0.00,VWS V14.01,2013-06-17 02:10:00,
2013-06-16 21:12:00,76.7,67.4,29.88,NNE,27,7.0,7.0,73,0.00,,---,0.00,VWS V14.01,2013-06-17 02:12:00,
2013-06-16 21:13:00,76.7,67.4,29.88,NE,49,7.0,7.0,73,0.00,,---,0.00,VWS V14.01,2013-06-17 02:13:00,
2013-06-16 21:15:00,76.7,67.4,29.89,ENE,61,3.0,7.0,73,0.00,,---,0.00,VWS V14.01,2013-06-17 02:15:00,
2013-06-16 21:17:00,76.7,67.4,29.89,NE,55,9.0,10.0,73,0.00,,---,0.00,VWS V14.01,2013-06-17 02:17:00,
2013-06-16 21:18:00,76.7,67.4,29.89,NE,47,1.0,10.0,73,0.00,,---,0.00,VWS V14.01,2013-06-17 02:18:00,
2013-06-16 21:20:00,76.7,67.4,29.89,NE,55,10.0,10.0,73,0.00,,---,0.00,VWS V14.01,2013-06-17 02:20:00,
2013-06-16 21:22:00,76.5,67.6,29.89,NE,51,5.0,11.0,74,0.00,,---,0.00,VWS V14.01,2013-06-17 02:22:00,
2013-06-16 21:23:00,76.5,67.6,29.89,NE,37,4.0,11.0,74,0.00,,---,0.00,VWS V14.01,2013-06-17 02:23:00,
2013-06-16 21:25:00,76.5,67.6,29.89,NE,55,4.0,11.0,74,0.00,,---,0.00,VWS V14.01,2013-06-17 02:25:00,
2013-06-16 21:27:00,76.5,68.0,29.89,NE,34,1.0,11.0,75,0.00,,---,0.00,VWS V14.01,2013-06-17 02:27:00,
2013-06-16 21:28:00,76.3,67.8,29.89,NE,52,3.0,11.0,75,0.00,,---,0.00,VWS V14.01,2013-06-17 02:28:00,
2013-06-16 21:30:00,76.3,67.8,29.90,NE,40,4.0,11.0,75,0.00,,---,0.00,VWS V14.01,2013-06-17 02:30:00,
2013-06-16 21:32:00,76.3,67.8,29.90,NE,52,6.0,6.0,75,0.00,,---,0.00,VWS V14.01,2013-06-17 02:32:00,
2013-06-16 21:33:00,76.3,67.8,29.90,NE,54,1.0,6.0,75,0.00,,---,0.00,VWS V14.01,2013-06-17 02:33:00,
2013-06-16 21:35:00,76.3,68.2,29.90,NE,47,6.0,9.0,76,0.00,,---,0.00,VWS V14.01,2013-06-17 02:35:00,
2013-06-16 21:37:00,76.1,68.0,29.90,NE,51,4.0,10.0,76,0.00,,---,0.00,VWS V14.01,2013-06-17 02:37:00,
2013-06-16 21:38:00,76.1,68.0,29.90,NE,49,4.0,10.0,76,0.00,,---,0.00,VWS V14.01,2013-06-17 02:38:00,
2013-06-16 21:40:00,76.0,67.9,29.90,NE,35,3.0,10.0,76,0.00,,---,0.00,VWS V14.01,2013-06-17 02:40:00,
2013-06-16 21:41:00,76.0,67.9,29.90,NE,44,4.0,4.0,76,0.00,,---,0.00,VWS V14.01,2013-06-17 02:41:00,
2013-06-16 21:42:00,76.0,68.3,29.90,NE,48,4.0,9.0,77,0.00,,---,0.00,VWS V14.01,2013-06-17 02:42:00,
2013-06-16 21:43:00,76.0,68.3,29.90,NE,46,0.0,9.0,77,0.00,,---,0.00,VWS V14.01,2013-06-17 02:43:00,
2013-06-16 21:45:00,75.8,68.1,29.90,NE,50,7.0,12.0,77,0.00,,---,0.00,VWS V14.01,2013-06-17 02:45:00,
2013-06-16 21:46:00,75.8,68.1,29.90,NE,50,5.0,12.0,77,0.00,,---,0.00,VWS V14.01,2013-06-17 02:46:00,
2013-06-16 21:47:00,75.8,68.1,29.90,NE,43,3.0,12.0,77,0.00,,---,0.00,VWS V14.01,2013-06-17 02:47:00,
2013-06-16 21:48:00,75.8,68.1,29.90,NNE,26,4.0,12.0,77,0.00,,---,0.00,VWS V14.01,2013-06-17 02:48:00,
2013-06-16 21:50:00,75.6,67.9,29.90,NE,48,4.0,12.0,77,0.00,,---,0.00,VWS V14.01,2013-06-17 02:50:00,
2013-06-16 21:51:00,75.6,67.9,29.90,NNE,26,6.0,12.0,77,0.00,,---,0.00,VWS V14.01,2013-06-17 02:51:00,
2013-06-16 21:53:00,75.6,68.3,29.90,NE,34,0.0,6.0,78,0.00,,---,0.00,VWS V14.01,2013-06-17 02:53:00,
2013-06-16 21:55:00,75.6,68.3,29.90,NE,42,0.0,6.0,78,0.00,,---,0.00,VWS V14.01,2013-06-17 02:55:00,
2013-06-16 21:56:00,75.6,68.3,29.90,NE,41,0.0,6.0,78,0.00,,---,0.00,VWS V14.01,2013-06-17 02:56:00,
2013-06-16 21:58:00,75.6,68.3,29.90,NE,45,6.0,6.0,78,0.00,,---,0.00,VWS V14.01,2013-06-17 02:58:00,
2013-06-16 22:00:00,75.4,68.4,29.89,NE,46,4.0,7.0,79,0.00,,---,0.00,VWS V14.01,2013-06-17 03:00:00,
2013-06-16 22:01:00,75.4,68.4,29.89,NE,46,1.0,2.0,79,0.00,,---,0.00,VWS V14.01,2013-06-17 03:01:00,
2013-06-16 22:03:00,75.4,68.4,29.89,NNE,19,6.0,10.0,79,0.00,,---,0.00,VWS V14.01,2013-06-17 03:03:00,
2013-06-16 22:06:00,75.3,68.3,29.89,NE,46,3.0,10.0,79,0.00,,---,0.00,VWS V14.01,2013-06-17 03:06:00,
2013-06-16 22:08:00,75.3,68.3,29.89,NE,39,4.0,10.0,79,0.00,,---,0.00,VWS V14.01,2013-06-17 03:08:00,
2013-06-16 22:11:00,75.3,68.3,29.89,NNE,23,0.0,5.0,79,0.00,,---,0.00,VWS V14.01,2013-06-17 03:11:00,
2013-06-16 22:13:00,75.1,68.2,29.89,NE,47,3.0,7.0,79,0.00,,---,0.00,VWS V14.01,2013-06-17 03:13:00,
2013-06-16 22:16:00,75.1,68.2,29.89,NNE,28,3.0,10.0,79,0.00,,---,0.00,VWS V14.01,2013-06-17 03:16:00,
2013-06-16 22:18:00,75.1,68.2,29.89,NE,44,9.0,10.0,79,0.00,,---,0.00,VWS V14.01,2013-06-17 03:18:00,
2013-06-16 22:21:00,75.1,68.5,29.89,NE,45,3.0,9.0,80,0.00,,---,0.00,VWS V14.01,2013-06-17 03:21:00,
2013-06-16 22:23:00,75.1,68.5,29.89,NE,36,2.0,9.0,80,0.00,,---,0.00,VWS V14.01,2013-06-17 03:23:00,
2013-06-16 22:26:00,75.1,68.5,29.89,NE,42,10.0,13.0,80,0.00,,---,0.00,VWS V14.01,2013-06-17 03:26:00,
2013-06-16 22:28:00,75.1,68.5,29.89,NE,54,10.0,13.0,80,0.00,,---,0.00,VWS V14.01,2013-06-17 03:28:00,
2013-06-16 22:31:00,75.1,68.5,29.90,NE,38,2.0,5.0,80,0.00,,---,0.00,VWS V14.01,2013-06-17 03:31:00,
2013-06-16 22:33:00,75.1,68.2,29.90,NNE,30,1.0,12.0,79,0.00,,---,0.00,VWS V14.01,2013-06-17 03:33:00,
2013-06-16 22:34:00,75.1,68.2,29.90,NNE,17,3.0,12.0,79,0.00,,---,0.00,VWS V14.01,2013-06-17 03:34:00,
2013-06-16 22:36:00,75.1,68.2,29.90,North,360,5.0,12.0,79,0.00,,---,0.00,VWS V14.01,2013-06-17 03:36:00,
2013-06-16 22:38:00,75.1,68.2,29.90,NNE,24,7.0,12.0,79,0.00,,---,0.00,VWS V14.01,2013-06-17 03:38:00,
2013-06-16 22:39:00,75.1,68.2,29.90,NE,52,9.0,12.0,79,0.00,,---,0.00,VWS V14.01,2013-06-17 03:39:00,
2013-06-16 22:41:00,75.3,68.3,29.90,NE,49,2.0,11.0,79,0.00,,---,0.00,VWS V14.01,2013-06-17 03:41:00,
2013-06-16 22:43:00,75.3,68.3,29.90,ENE,60,6.0,13.0,79,0.00,,---,0.00,VWS V14.01,2013-06-17 03:43:00,
2013-06-16 22:44:00,75.3,68.3,29.90,NE,44,4.0,13.0,79,0.00,,---,0.00,VWS V14.01,2013-06-17 03:44:00,
2013-06-16 22:46:00,75.3,68.3,29.91,NNE,27,3.0,13.0,79,0.00,,---,0.00,VWS V14.01,2013-06-17 03:46:00,
2013-06-16 22:48:00,75.3,68.3,29.91,NE,41,6.0,13.0,79,0.00,,---,0.00,VWS V14.01,2013-06-17 03:48:00,
2013-06-16 22:49:00,75.3,68.3,29.91,NE,53,7.0,13.0,79,0.00,,---,0.00,VWS V14.01,2013-06-17 03:49:00,
2013-06-16 22:51:00,75.3,68.3,29.91,NE,56,13.0,13.0,79,0.00,,---,0.00,VWS V14.01,2013-06-17 03:51:00,
2013-06-16 22:52:00,75.3,68.0,29.91,ENE,59,11.0,14.0,78,0.00,,---,0.00,VWS V14.01,2013-06-17 03:52:00,
2013-06-16 22:53:00,75.3,68.0,29.91,ENE,57,10.0,14.0,78,0.00,,---,0.00,VWS V14.01,2013-06-17 03:53:00,
2013-06-16 22:54:00,75.3,68.0,29.91,NE,41,9.0,14.0,78,0.00,,---,0.00,VWS V14.01,2013-06-17 03:54:00,
2013-06-16 22:56:00,75.3,68.0,29.91,ENE,63,4.0,14.0,78,0.00,,---,0.00,VWS V14.01,2013-06-17 03:56:00,
2013-06-16 22:57:00,75.4,68.1,29.91,NE,45,7.0,14.0,78,0.00,,---,0.00,VWS V14.01,2013-06-17 03:57:00,
2013-06-16 22:59:00,75.4,68.1,29.91,NE,44,6.0,14.0,78,0.00,,---,0.00,VWS V14.01,2013-06-17 03:59:00,
2013-06-16 23:01:00,75.4,68.1,29.90,NE,47,6.0,14.0,78,0.00,,---,0.00,VWS V14.01,2013-06-17 04:01:00,
2013-06-16 23:06:00,75.3,68.0,29.90,NE,46,2.0,10.0,78,0.00,,---,0.00,VWS V14.01,2013-06-17 04:06:00,
2013-06-16 23:11:00,75.3,68.0,29.90,NE,45,6.0,6.0,78,0.00,,---,0.00,VWS V14.01,2013-06-17 04:11:00,
2013-06-16 23:16:00,74.9,67.9,29.90,NE,50,4.0,9.0,79,0.00,,---,0.00,VWS V14.01,2013-06-17 04:16:00,
2013-06-16 23:21:00,74.9,68.3,29.90,NE,48,4.0,6.0,80,0.00,,---,0.00,VWS V14.01,2013-06-17 04:21:00,
2013-06-16 23:26:00,74.7,68.5,29.90,NE,53,10.0,11.0,81,0.00,,---,0.00,VWS V14.01,2013-06-17 04:26:00,
2013-06-16 23:31:00,74.4,68.6,29.90,NE,47,7.0,9.0,82,0.00,,---,0.00,VWS V14.01,2013-06-17 04:31:00,
2013-06-16 23:36:00,74.2,68.7,29.90,NE,47,6.0,10.0,83,0.00,,---,0.00,VWS V14.01,2013-06-17 04:36:00,
2013-06-16 23:41:00,74.0,68.9,29.90,NE,43,0.0,0.0,84,0.00,,---,0.00,VWS V14.01,2013-06-17 04:41:00,
2013-06-16 23:46:00,74.0,68.9,29.89,NE,44,2.0,9.0,84,0.00,,---,0.00,VWS V14.01,2013-06-17 04:46:00,
2013-06-16 23:51:00,74.0,68.9,29.89,NE,42,1.0,7.0,84,0.00,,---,0.00,VWS V14.01,2013-06-17 04:51:00,
2013-06-16 23:52:00,74.0,68.9,29.89,NE,53,11.0,12.0,84,0.00,,---,0.00,VWS V14.01,2013-06-17 04:52:00,
2013-06-16 23:56:00,74.0,68.9,29.89,ENE,59,7.0,12.0,84,0.00,,---,0.00,VWS V14.01,2013-06-17 04:56:00,
2013-06-16 23:57:00,74.0,68.9,29.89,NE,40,4.0,12.0,84,0.00,,---,0.00,VWS V14.01,2013-06-17 04:57:00,